Time,TemperatureF,DewpointF,PressureIn,WindDirection,WindDirectionDegrees,WindSpeedMPH,WindSpeedGustMPH,Humidity,HourlyPrecipIn,Conditions,Clouds,dailyrainin,SoftwareType,DateUTC
2013-05-03 00:01:00,73.2,69.4,29.81,East,96,2.0,2.0,88,0.00,,,2.21,Wunderground v.1.15,2013-05-03 04:01:00,
2013-05-03 00:02:00,73.2,69.4,29.81,ENE,65,1.0,2.0,88,0.00,,,2.21,Wunderground v.1.15,2013-05-03 04:02:00,
2013-05-03 00:06:00,73.1,69.3,29.80,SE,139,1.0,2.0,88,0.00,,,2.21,Wunderground v.1.15,2013-05-03 04:06:00,
2013-05-03 00:08:00,73.1,69.7,29.80,NNE,25,1.0,2.0,89,0.00,,,0.00,Wunderground v.1.15,2013-05-03 04:08:00,
2013-05-03 00:10:00,73.1,69.7,29.80,ENE,74,1.0,1.0,89,0.00,,,0.00,Wunderground v.1.15,2013-05-03 04:10:00,
2013-05-03 00:13:00,73.1,69.7,29.80,NNW,345,1.0,2.0,89,0.00,,,0.00,Wunderground v.1.15,2013-05-03 04:13:00,
2013-05-03 00:16:00,73.2,70.1,29.80,East,80,1.0,3.0,90,0.00,,,0.00,Wunderground v.1.15,2013-05-03 04:16:00,
2013-05-03 00:17:00,73.2,70.1,29.80,ENE,68,1.0,3.0,90,0.00,,,0.00,Wunderground v.1.15,2013-05-03 04:17:00,
2013-05-03 00:18:00,73.3,70.2,29.80,NE,47,2.0,3.0,90,0.00,,,0.01,Wunderground v.1.15,2013-05-03 04:18:00,
2013-05-03 00:19:00,73.3,70.2,29.80,ENE,75,2.0,3.0,90,0.00,,,0.01,Wunderground v.1.15,2013-05-03 04:19:00,
2013-05-03 00:23:00,73.2,70.4,29.79,ENE,59,2.0,2.0,91,0.14,,,0.02,Wunderground v.1.15,2013-05-03 04:23:00,
2013-05-03 00:24:00,73.2,70.4,29.79,NNE,14,2.0,2.0,91,0.14,,,0.02,Wunderground v.1.15,2013-05-03 04:24:00,
2013-05-03 00:25:00,73.1,70.3,29.79,ENE,62,2.0,2.0,91,0.14,,,0.02,Wunderground v.1.15,2013-05-03 04:25:00,
2013-05-03 00:27:00,73.0,70.2,29.79,ENE,73,2.0,5.0,91,0.12,,,0.02,Wunderground v.1.15,2013-05-03 04:27:00,
2013-05-03 00:30:00,73.0,70.2,29.79,ENE,77,2.0,3.0,91,0.11,,,0.03,Wunderground v.1.15,2013-05-03 04:30:00,
2013-05-03 00:31:00,73.0,70.5,29.79,SE,133,3.0,6.0,92,0.11,,,0.03,Wunderground v.1.15,2013-05-03 04:31:00,
2013-05-03 00:33:00,73.0,70.2,29.79,ENE,77,3.0,6.0,91,0.10,,,0.03,Wunderground v.1.15,2013-05-03 04:33:00,
2013-05-03 00:35:00,73.0,70.5,29.79,ENE,68,3.0,6.0,92,0.07,,,0.03,Wunderground v.1.15,2013-05-03 04:35:00,
2013-05-03 00:36:00,73.0,70.5,29.79,NE,49,3.0,6.0,92,0.07,,,0.03,Wunderground v.1.15,2013-05-03 04:36:00,
2013-05-03 00:37:00,72.9,70.4,29.79,East,93,3.0,6.0,92,0.06,,,0.03,Wunderground v.1.15,2013-05-03 04:37:00,
2013-05-03 00:41:00,72.8,70.3,29.79,SE,126,3.0,6.0,92,0.04,,,0.03,Wunderground v.1.15,2013-05-03 04:41:00,
2013-05-03 00:43:00,72.7,70.2,29.79,East,90,2.0,6.0,92,0.04,,,0.03,Wunderground v.1.15,2013-05-03 04:43:00,
2013-05-03 00:44:00,72.6,70.1,29.78,East,98,2.0,6.0,92,0.00,,,0.03,Wunderground v.1.15,2013-05-03 04:44:00,
2013-05-03 00:48:00,72.5,70.0,29.78,ESE,108,1.0,6.0,92,0.00,,,0.03,Wunderground v.1.15,2013-05-03 04:48:00,
2013-05-03 00:49:00,72.4,69.9,29.78,ESE,108,1.0,6.0,92,0.00,,,0.03,Wunderground v.1.15,2013-05-03 04:49:00,
2013-05-03 00:50:00,72.4,69.9,29.78,ESE,108,1.0,1.0,92,0.00,,,0.03,Wunderground v.1.15,2013-05-03 04:50:00,
2013-05-03 00:52:00,72.3,69.8,29.78,ESE,108,0.0,6.0,92,0.00,,,0.03,Wunderground v.1.15,2013-05-03 04:52:00,
2013-05-03 00:55:00,72.2,70.1,29.78,ESE,108,0.0,6.0,93,0.00,,,0.03,Wunderground v.1.15,2013-05-03 04:55:00,
2013-05-03 00:56:00,72.1,70.0,29.78,ESE,108,0.0,6.0,93,0.00,,,0.03,Wunderground v.1.15,2013-05-03 04:56:00,
2013-05-03 00:57:00,72.1,70.0,29.78,ESE,108,0.0,6.0,93,0.00,,,0.03,Wunderground v.1.15,2013-05-03 04:57:00,
2013-05-03 00:59:00,72.0,69.9,29.78,ESE,108,0.0,6.0,93,0.00,,,0.03,Wunderground v.1.15,2013-05-03 04:59:00,
2013-05-03 01:04:00,71.7,69.9,29.78,ESE,108,0.0,0.0,94,0.00,,,0.03,Wunderground v.1.15,2013-05-03 05:04:00,
2013-05-03 01:05:00,71.6,69.8,29.78,ESE,108,0.0,0.0,94,0.00,,,0.03,Wunderground v.1.15,2013-05-03 05:05:00,
2013-05-03 01:07:00,71.5,69.7,29.78,ESE,108,0.0,1.0,94,0.00,,,0.03,Wunderground v.1.15,2013-05-03 05:07:00,
2013-05-03 01:08:00,71.4,69.6,29.77,ESE,108,0.0,1.0,94,0.00,,,0.03,Wunderground v.1.15,2013-05-03 05:08:00,
2013-05-03 01:10:00,71.3,69.8,29.77,ESE,108,0.0,1.0,95,0.00,,,0.03,Wunderground v.1.15,2013-05-03 05:10:00,
2013-05-03 01:13:00,71.1,69.6,29.77,ESE,108,0.0,1.0,95,0.00,,,0.03,Wunderground v.1.15,2013-05-03 05:13:00,
2013-05-03 01:16:00,71.1,69.6,29.77,ESE,108,0.0,1.0,95,0.00,,,0.03,Wunderground v.1.15,2013-05-03 05:16:00,
2013-05-03 01:17:00,71.0,69.5,29.77,ESE,108,0.0,1.0,95,0.00,,,0.03,Wunderground v.1.15,2013-05-03 05:17:00,
2013-05-03 01:18:00,70.9,69.4,29.77,ESE,108,0.0,1.0,95,0.00,,,0.03,Wunderground v.1.15,2013-05-03 05:18:00,
2013-05-03 01:19:00,70.9,69.4,29.77,ESE,108,0.0,1.0,95,0.00,,,0.03,Wunderground v.1.15,2013-05-03 05:19:00,
2013-05-03 01:23:00,70.7,69.2,29.76,ESE,108,0.0,0.0,95,0.00,,,0.03,Wunderground v.1.15,2013-05-03 05:23:00,
2013-05-03 01:24:00,70.7,69.2,29.76,ESE,108,0.0,0.0,95,0.00,,,0.03,Wunderground v.1.15,2013-05-03 05:24:00,
2013-05-03 01:26:00,70.7,69.2,29.76,ESE,108,0.0,0.0,95,0.00,,,0.03,Wunderground v.1.15,2013-05-03 05:26:00,
2013-05-03 01:30:00,70.5,69.3,29.76,ESE,108,0.0,0.0,96,0.00,,,0.03,Wunderground v.1.15,2013-05-03 05:30:00,
2013-05-03 01:31:00,70.5,69.3,29.76,ESE,108,0.0,8.0,96,0.00,,,0.03,Wunderground v.1.15,2013-05-03 05:31:00,
2013-05-03 01:33:00,70.5,69.3,29.75,ESE,108,0.0,8.0,96,0.00,,,0.03,Wunderground v.1.15,2013-05-03 05:33:00,
2013-05-03 01:36:00,70.5,69.3,29.75,ESE,108,0.0,8.0,96,0.00,,,0.03,Wunderground v.1.15,2013-05-03 05:36:00,
2013-05-03 01:38:00,70.5,69.3,29.75,ESE,108,0.0,8.0,96,0.00,,,0.03,Wunderground v.1.15,2013-05-03 05:38:00,
2013-05-03 01:39:00,70.5,69.3,29.75,ESE,108,0.0,8.0,96,0.00,,,0.03,Wunderground v.1.15,2013-05-03 05:39:00,
2013-05-03 01:41:00,70.4,69.2,29.75,ESE,108,0.0,8.0,96,0.00,,,0.03,Wunderground v.1.15,2013-05-03 05:41:00,
2013-05-03 01:43:00,70.4,69.2,29.75,ESE,108,0.0,8.0,96,0.00,,,0.03,Wunderground v.1.15,2013-05-03 05:43:00,
2013-05-03 01:46:00,70.3,69.1,29.74,SE,144,0.0,8.0,96,0.00,,,0.03,Wunderground v.1.15,2013-05-03 05:46:00,
2013-05-03 01:50:00,70.3,69.1,29.74,SE,145,0.0,8.0,96,0.00,,,0.03,Wunderground v.1.15,2013-05-03 05:50:00,
2013-05-03 01:52:00,70.3,69.4,29.74,WNW,300,0.0,8.0,97,0.00,,,0.03,Wunderground v.1.15,2013-05-03 05:52:00,
2013-05-03 01:55:00,70.5,69.6,29.74,WNW,298,0.0,8.0,97,0.00,,,0.03,Wunderground v.1.15,2013-05-03 05:55:00,
2013-05-03 01:57:00,70.4,69.5,29.74,SSE,155,0.0,8.0,97,0.00,,,0.03,Wunderground v.1.15,2013-05-03 05:57:00,
2013-05-03 01:58:00,70.4,69.2,29.74,SSE,155,0.0,8.0,96,0.00,,,0.03,Wunderground v.1.15,2013-05-03 05:58:00,
2013-05-03 01:59:00,70.4,69.2,29.74,SSE,155,0.0,8.0,96,0.00,,,0.03,Wunderground v.1.15,2013-05-03 05:59:00,
2013-05-03 02:01:00,70.3,69.1,29.74,SSE,155,0.0,0.0,96,0.00,,,0.03,Wunderground v.1.15,2013-05-03 06:01:00,
2013-05-03 02:03:00,70.2,69.0,29.74,SSE,155,0.0,0.0,96,0.00,,,0.03,Wunderground v.1.15,2013-05-03 06:03:00,
2013-05-03 02:04:00,70.2,69.0,29.73,SSE,155,0.0,0.0,96,0.00,,,0.03,Wunderground v.1.15,2013-05-03 06:04:00,
2013-05-03 02:06:00,70.2,69.0,29.73,South,184,0.0,0.0,96,0.00,,,0.03,Wunderground v.1.15,2013-05-03 06:06:00,
2013-05-03 02:09:00,70.1,69.2,29.73,South,184,0.0,0.0,97,0.00,,,0.03,Wunderground v.1.15,2013-05-03 06:09:00,
2013-05-03 02:10:00,70.1,68.9,29.73,South,184,0.0,0.0,96,0.00,,,0.03,Wunderground v.1.15,2013-05-03 06:10:00,
2013-05-03 02:11:00,70.1,69.2,29.73,South,184,0.0,0.0,97,0.00,,,0.03,Wunderground v.1.15,2013-05-03 06:11:00,
2013-05-03 02:16:00,69.9,69.0,29.73,SSW,198,0.0,0.0,97,0.00,,,0.03,Wunderground v.1.15,2013-05-03 06:16:00,
2013-05-03 02:17:00,69.9,69.0,29.73,SSW,198,0.0,0.0,97,0.00,,,0.03,Wunderground v.1.15,2013-05-03 06:17:00,
2013-05-03 02:19:00,69.8,68.9,29.73,SSW,198,0.0,0.0,97,0.00,,,0.03,Wunderground v.1.15,2013-05-03 06:19:00,
2013-05-03 02:20:00,69.8,68.9,29.73,SSW,198,0.0,0.0,97,0.00,,,0.03,Wunderground v.1.15,2013-05-03 06:20:00,
2013-05-03 02:22:00,69.7,68.8,29.73,SSW,198,0.0,0.0,97,0.00,,,0.03,Wunderground v.1.15,2013-05-03 06:22:00,
2013-05-03 02:23:00,69.7,68.8,29.73,SSW,198,0.0,0.0,97,0.00,,,0.03,Wunderground v.1.15,2013-05-03 06:23:00,
2013-05-03 02:25:00,69.7,68.8,29.73,NW,304,0.0,2.0,97,0.00,,,0.03,Wunderground v.1.15,2013-05-03 06:25:00,
2013-05-03 02:26:00,69.7,68.8,29.73,WNW,289,0.0,3.0,97,0.00,,,0.03,Wunderground v.1.15,2013-05-03 06:26:00,
2013-05-03 02:27:00,69.8,68.9,29.73,NW,312,1.0,3.0,97,0.00,,,0.03,Wunderground v.1.15,2013-05-03 06:27:00,
2013-05-03 02:28:00,69.8,68.9,29.73,NW,316,1.0,3.0,97,0.00,,,0.03,Wunderground v.1.15,2013-05-03 06:28:00,
2013-05-03 02:32:00,69.9,69.0,29.73,WNW,293,2.0,2.0,97,0.00,,,0.03,Wunderground v.1.15,2013-05-03 06:32:00,
2013-05-03 02:33:00,69.9,69.0,29.73,NW,305,2.0,3.0,97,0.00,,,0.03,Wunderground v.1.15,2013-05-03 06:33:00,
2013-05-03 02:35:00,69.9,69.0,29.73,WNW,293,2.0,3.0,97,0.00,,,0.03,Wunderground v.1.15,2013-05-03 06:35:00,
2013-05-03 02:37:00,69.8,68.9,29.73,WNW,290,2.0,3.0,97,0.00,,,0.03,Wunderground v.1.15,2013-05-03 06:37:00,
2013-05-03 02:38:00,69.8,68.9,29.73,WNW,294,2.0,3.0,97,0.00,,,0.03,Wunderground v.1.15,2013-05-03 06:38:00,
2013-05-03 02:44:00,69.8,68.9,29.73,NW,317,2.0,2.0,97,0.00,,,0.03,Wunderground v.1.15,2013-05-03 06:44:00,
2013-05-03 02:45:00,69.8,68.9,29.73,West,275,2.0,2.0,97,0.00,,,0.03,Wunderground v.1.15,2013-05-03 06:45:00,
2013-05-03 02:46:00,69.8,68.9,29.73,West,276,2.0,2.0,97,0.00,,,0.03,Wunderground v.1.15,2013-05-03 06:46:00,
2013-05-03 02:47:00,69.8,68.9,29.73,West,276,1.0,2.0,97,0.00,,,0.03,Wunderground v.1.15,2013-05-03 06:47:00,
2013-05-03 02:50:00,69.7,68.8,29.73,SW,234,1.0,1.0,97,0.00,,,0.03,Wunderground v.1.15,2013-05-03 06:50:00,
2013-05-03 02:53:00,69.6,68.7,29.73,SW,234,0.0,1.0,97,0.00,,,0.03,Wunderground v.1.15,2013-05-03 06:53:00,
2013-05-03 02:55:00,69.6,68.7,29.73,SW,234,0.0,1.0,97,0.00,,,0.03,Wunderground v.1.15,2013-05-03 06:55:00,
2013-05-03 02:56:00,69.5,68.6,29.73,SW,234,0.0,1.0,97,0.00,,,0.03,Wunderground v.1.15,2013-05-03 06:56:00,
2013-05-03 02:57:00,69.5,68.6,29.73,SW,234,0.0,1.0,97,0.00,,,0.03,Wunderground v.1.15,2013-05-03 06:57:00,
2013-05-03 03:01:00,69.5,68.6,29.73,NW,317,0.0,1.0,97,0.00,,,0.03,Wunderground v.1.15,2013-05-03 07:01:00,
2013-05-03 03:02:00,69.6,68.7,29.73,NW,317,0.0,1.0,97,0.00,,,0.03,Wunderground v.1.15,2013-05-03 07:02:00,
2013-05-03 03:03:00,69.5,68.6,29.73,NW,317,0.0,1.0,97,0.00,,,0.03,Wunderground v.1.15,2013-05-03 07:03:00,
2013-05-03 03:05:00,69.6,68.7,29.73,NW,317,0.0,1.0,97,0.00,,,0.03,Wunderground v.1.15,2013-05-03 07:05:00,
2013-05-03 03:07:00,69.5,68.6,29.73,NW,317,0.0,1.0,97,0.00,,,0.03,Wunderground v.1.15,2013-05-03 07:07:00,
2013-05-03 03:10:00,69.5,68.6,29.72,NW,317,0.0,0.0,97,0.00,,,0.03,Wunderground v.1.15,2013-05-03 07:10:00,
2013-05-03 03:12:00,69.5,68.6,29.72,NW,317,0.0,0.0,97,0.00,,,0.03,Wunderground v.1.15,2013-05-03 07:12:00,
2013-05-03 03:13:00,69.5,68.6,29.72,NW,317,0.0,0.0,97,0.00,,,0.03,Wunderground v.1.15,2013-05-03 07:13:00,
2013-05-03 03:14:00,69.5,68.6,29.72,NW,317,0.0,0.0,97,0.00,,,0.03,Wunderground v.1.15,2013-05-03 07:14:00,
2013-05-03 03:16:00,69.6,68.7,29.72,WNW,300,0.0,0.0,97,0.00,,,0.03,Wunderground v.1.15,2013-05-03 07:16:00,
2013-05-03 03:19:00,69.5,68.6,29.72,WNW,300,0.0,0.0,97,0.00,,,0.03,Wunderground v.1.15,2013-05-03 07:19:00,
2013-05-03 03:20:00,69.5,68.6,29.72,WNW,300,0.0,0.0,97,0.00,,,0.03,Wunderground v.1.15,2013-05-03 07:20:00,
2013-05-03 03:22:00,69.5,68.6,29.72,SW,231,0.0,1.0,97,0.00,,,0.03,Wunderground v.1.15,2013-05-03 07:22:00,
2013-05-03 03:24:00,69.5,68.6,29.72,SSW,210,0.0,2.0,97,0.00,,,0.03,Wunderground v.1.15,2013-05-03 07:24:00,
2013-05-03 03:25:00,69.4,68.5,29.72,SSW,210,0.0,2.0,97,0.00,,,0.03,Wunderground v.1.15,2013-05-03 07:25:00,
2013-05-03 03:27:00,69.4,68.5,29.72,SSW,210,0.0,2.0,97,0.00,,,0.03,Wunderground v.1.15,2013-05-03 07:27:00,
2013-05-03 03:28:00,69.4,68.5,29.72,SSW,211,0.0,2.0,97,0.00,,,0.03,Wunderground v.1.15,2013-05-03 07:28:00,
2013-05-03 03:29:00,69.4,68.5,29.72,WSW,237,0.0,2.0,97,0.00,,,0.03,Wunderground v.1.15,2013-05-03 07:29:00,
2013-05-03 03:31:00,69.3,68.4,29.72,WSW,237,0.0,4.0,97,0.00,,,0.03,Wunderground v.1.15,2013-05-03 07:31:00,
2013-05-03 03:34:00,69.2,68.3,29.72,SSE,154,0.0,4.0,97,0.00,,,0.03,Wunderground v.1.15,2013-05-03 07:34:00,
2013-05-03 03:35:00,69.2,68.3,29.72,SSE,154,0.0,4.0,97,0.00,,,0.03,Wunderground v.1.15,2013-05-03 07:35:00,
2013-05-03 03:36:00,69.2,68.3,29.72,SSE,154,0.0,4.0,97,0.00,,,0.03,Wunderground v.1.15,2013-05-03 07:36:00,
2013-05-03 03:37:00,69.2,68.3,29.73,SSE,154,0.0,4.0,97,0.00,,,0.03,Wunderground v.1.15,2013-05-03 07:37:00,
2013-05-03 03:41:00,69.1,68.2,29.73,WSW,238,0.0,4.0,97,0.00,,,0.03,Wunderground v.1.15,2013-05-03 07:41:00,
2013-05-03 03:44:00,69.1,68.2,29.73,WSW,246,0.0,4.0,97,0.00,,,0.03,Wunderground v.1.15,2013-05-03 07:44:00,
2013-05-03 03:45:00,69.1,68.2,29.73,WSW,250,0.0,4.0,97,0.00,,,0.03,Wunderground v.1.15,2013-05-03 07:45:00,
2013-05-03 03:47:00,69.1,68.2,29.73,SW,235,0.0,4.0,97,0.00,,,0.03,Wunderground v.1.15,2013-05-03 07:47:00,
2013-05-03 03:49:00,69.1,68.2,29.73,SW,219,0.0,4.0,97,0.00,,,0.03,Wunderground v.1.15,2013-05-03 07:49:00,
2013-05-03 03:50:00,69.1,68.2,29.73,SW,236,0.0,4.0,97,0.00,,,0.03,Wunderground v.1.15,2013-05-03 07:50:00,
2013-05-03 03:53:00,69.1,68.2,29.74,WSW,243,0.0,4.0,97,0.00,,,0.03,Wunderground v.1.15,2013-05-03 07:53:00,
2013-05-03 03:54:00,69.1,68.2,29.74,SW,215,0.0,4.0,97,0.00,,,0.03,Wunderground v.1.15,2013-05-03 07:54:00,
2013-05-03 03:55:00,69.1,68.2,29.74,WSW,243,0.0,4.0,97,0.00,,,0.03,Wunderground v.1.15,2013-05-03 07:55:00,
2013-05-03 03:59:00,69.0,68.1,29.74,SW,228,1.0,4.0,97,0.00,,,0.03,Wunderground v.1.15,2013-05-03 07:59:00,
2013-05-03 04:00:00,69.0,68.1,29.74,WSW,237,1.0,1.0,97,0.00,,,0.03,Wunderground v.1.15,2013-05-03 08:00:00,
2013-05-03 04:01:00,69.0,68.1,29.74,SSW,205,1.0,1.0,97,0.00,,,0.03,Wunderground v.1.15,2013-05-03 08:01:00,
2013-05-03 04:03:00,69.0,68.1,29.74,SW,226,1.0,1.0,97,0.00,,,0.03,Wunderground v.1.15,2013-05-03 08:03:00,
2013-05-03 04:06:00,69.0,68.1,29.74,WSW,247,1.0,1.0,97,0.00,,,0.03,Wunderground v.1.15,2013-05-03 08:06:00,
2013-05-03 04:08:00,69.0,68.1,29.74,SSE,167,1.0,1.0,97,0.00,,,0.03,Wunderground v.1.15,2013-05-03 08:08:00,
2013-05-03 04:09:00,69.0,68.1,29.74,South,177,1.0,1.0,97,0.00,,,0.03,Wunderground v.1.15,2013-05-03 08:09:00,
2013-05-03 04:10:00,69.0,68.1,29.74,West,269,1.0,1.0,97,0.00,,,0.03,Wunderground v.1.15,2013-05-03 08:10:00,
2013-05-03 04:11:00,69.0,68.1,29.74,WSW,246,0.0,2.0,97,0.00,,,0.03,Wunderground v.1.15,2013-05-03 08:11:00,
2013-05-03 04:12:00,69.0,68.1,29.74,SW,224,1.0,2.0,97,0.00,,,0.03,Wunderground v.1.15,2013-05-03 08:12:00,
2013-05-03 04:13:00,68.9,68.0,29.74,SW,231,1.0,2.0,97,0.00,,,0.03,Wunderground v.1.15,2013-05-03 08:13:00,
2013-05-03 04:15:00,69.0,68.1,29.74,SW,231,0.0,2.0,97,0.00,,,0.03,Wunderground v.1.15,2013-05-03 08:15:00,
2013-05-03 04:18:00,69.0,68.1,29.74,SW,233,1.0,2.0,97,0.00,,,0.03,Wunderground v.1.15,2013-05-03 08:18:00,
2013-05-03 04:19:00,69.0,68.1,29.74,SW,233,1.0,2.0,97,0.00,,,0.03,Wunderground v.1.15,2013-05-03 08:19:00,
2013-05-03 04:22:00,69.0,68.1,29.74,SSE,163,1.0,2.0,97,0.00,,,0.03,Wunderground v.1.15,2013-05-03 08:22:00,
2013-05-03 04:23:00,68.9,68.0,29.74,ESE,117,1.0,2.0,97,0.00,,,0.03,Wunderground v.1.15,2013-05-03 08:23:00,
2013-05-03 04:24:00,68.9,68.0,29.74,SE,131,1.0,2.0,97,0.00,,,0.03,Wunderground v.1.15,2013-05-03 08:24:00,
2013-05-03 04:25:00,68.8,67.9,29.74,WSW,255,1.0,2.0,97,0.00,,,0.03,Wunderground v.1.15,2013-05-03 08:25:00,
2013-05-03 04:29:00,68.6,67.7,29.74,West,276,1.0,3.0,97,0.00,,,0.03,Wunderground v.1.15,2013-05-03 08:29:00,
2013-05-03 04:30:00,68.6,67.7,29.74,NNW,328,1.0,1.0,97,0.00,,,0.03,Wunderground v.1.15,2013-05-03 08:30:00,
2013-05-03 04:32:00,68.6,67.7,29.74,SSW,198,1.0,2.0,97,0.00,,,0.03,Wunderground v.1.15,2013-05-03 08:32:00,
2013-05-03 04:34:00,68.5,67.6,29.74,West,259,1.0,2.0,97,0.00,,,0.03,Wunderground v.1.15,2013-05-03 08:34:00,
2013-05-03 04:35:00,68.5,67.6,29.74,WSW,242,1.0,3.0,97,0.00,,,0.03,Wunderground v.1.15,2013-05-03 08:35:00,
2013-05-03 04:36:00,68.5,67.6,29.74,SW,236,1.0,3.0,97,0.00,,,0.03,Wunderground v.1.15,2013-05-03 08:36:00,
2013-05-03 04:37:00,68.5,67.6,29.75,SW,236,1.0,3.0,97,0.00,,,0.03,Wunderground v.1.15,2013-05-03 08:37:00,
2013-05-03 04:40:00,68.4,67.5,29.74,WSW,256,1.0,1.0,97,0.00,,,0.03,Wunderground v.1.15,2013-05-03 08:40:00,
2013-05-03 04:41:00,68.4,67.5,29.75,SW,231,1.0,2.0,97,0.00,,,0.03,Wunderground v.1.15,2013-05-03 08:41:00,
2013-05-03 04:42:00,68.4,67.5,29.75,SW,225,1.0,2.0,97,0.00,,,0.03,Wunderground v.1.15,2013-05-03 08:42:00,
2013-05-03 04:46:00,68.3,67.4,29.75,SW,223,1.0,2.0,97,0.00,,,0.03,Wunderground v.1.15,2013-05-03 08:46:00,
2013-05-03 04:47:00,68.3,67.4,29.75,WSW,249,1.0,2.0,97,0.00,,,0.03,Wunderground v.1.15,2013-05-03 08:47:00,
2013-05-03 04:48:00,68.3,67.4,29.75,West,275,1.0,2.0,97,0.00,,,0.03,Wunderground v.1.15,2013-05-03 08:48:00,
2013-05-03 04:49:00,68.3,67.4,29.75,SW,229,1.0,4.0,97,0.00,,,0.03,Wunderground v.1.15,2013-05-03 08:49:00,
2013-05-03 04:50:00,68.2,67.3,29.75,SW,214,1.0,2.0,97,0.00,,,0.03,Wunderground v.1.15,2013-05-03 08:50:00,
2013-05-03 04:53:00,68.2,67.3,29.74,SW,224,1.0,2.0,97,0.00,,,0.03,Wunderground v.1.15,2013-05-03 08:53:00,
2013-05-03 04:55:00,68.1,67.2,29.75,WSW,240,1.0,2.0,97,0.00,,,0.03,Wunderground v.1.15,2013-05-03 08:55:00,
2013-05-03 04:56:00,68.1,67.2,29.75,SW,236,1.0,2.0,97,0.00,,,0.03,Wunderground v.1.15,2013-05-03 08:56:00,
2013-05-03 04:59:00,68.1,67.2,29.75,SW,221,1.0,3.0,97,0.00,,,0.03,Wunderground v.1.15,2013-05-03 08:59:00,
2013-05-03 05:00:00,68.1,67.2,29.75,SW,231,1.0,1.0,97,0.00,,,0.03,Wunderground v.1.15,2013-05-03 09:00:00,
2013-05-03 05:01:00,68.1,67.2,29.75,SW,224,1.0,1.0,97,0.00,,,0.03,Wunderground v.1.15,2013-05-03 09:01:00,
2013-05-03 05:02:00,68.1,67.2,29.75,SW,224,1.0,1.0,97,0.00,,,0.03,Wunderground v.1.15,2013-05-03 09:02:00,
2013-05-03 05:05:00,68.1,67.2,29.74,WSW,242,1.0,1.0,97,0.00,,,0.03,Wunderground v.1.15,2013-05-03 09:05:00,
2013-05-03 05:07:00,68.1,67.2,29.75,SW,226,1.0,1.0,97,0.00,,,0.03,Wunderground v.1.15,2013-05-03 09:07:00,
2013-05-03 05:08:00,68.1,67.2,29.74,WNW,300,0.0,1.0,97,0.00,,,0.03,Wunderground v.1.15,2013-05-03 09:08:00,
2013-05-03 05:09:00,68.1,67.5,29.74,WNW,298,0.0,1.0,98,0.00,,,0.03,Wunderground v.1.15,2013-05-03 09:09:00,
2013-05-03 05:12:00,68.1,67.2,29.74,NW,311,1.0,1.0,97,0.00,,,0.03,Wunderground v.1.15,2013-05-03 09:12:00,
2013-05-03 05:14:00,68.1,67.2,29.74,NW,320,1.0,1.0,97,0.00,,,0.03,Wunderground v.1.15,2013-05-03 09:14:00,
2013-05-03 05:15:00,68.1,67.2,29.74,NW,310,1.0,1.0,97,0.00,,,0.03,Wunderground v.1.15,2013-05-03 09:15:00,
2013-05-03 05:18:00,68.1,67.2,29.74,SSW,195,1.0,1.0,97,0.00,,,0.03,Wunderground v.1.15,2013-05-03 09:18:00,
2013-05-03 05:20:00,68.1,67.2,29.74,SW,224,1.0,3.0,97,0.00,,,0.03,Wunderground v.1.15,2013-05-03 09:20:00,
2013-05-03 05:23:00,68.0,67.1,29.74,SSW,195,1.0,3.0,97,0.00,,,0.03,Wunderground v.1.15,2013-05-03 09:23:00,
2013-05-03 05:24:00,68.0,67.1,29.74,SW,219,1.0,3.0,97,0.00,,,0.03,Wunderground v.1.15,2013-05-03 09:24:00,
2013-05-03 05:26:00,68.0,67.1,29.74,SW,223,1.0,3.0,97,0.00,,,0.03,Wunderground v.1.15,2013-05-03 09:26:00,
2013-05-03 05:29:00,68.0,67.1,29.75,SW,217,1.0,3.0,97,0.00,,,0.03,Wunderground v.1.15,2013-05-03 09:29:00,
2013-05-03 05:30:00,68.0,67.1,29.75,SW,216,1.0,1.0,97,0.00,,,0.03,Wunderground v.1.15,2013-05-03 09:30:00,
2013-05-03 05:32:00,67.9,67.0,29.75,SW,223,1.0,4.0,97,0.00,,,0.03,Wunderground v.1.15,2013-05-03 09:32:00,
2013-05-03 05:33:00,67.9,67.0,29.75,WSW,255,1.0,4.0,97,0.00,,,0.03,Wunderground v.1.15,2013-05-03 09:33:00,
2013-05-03 05:35:00,67.9,67.0,29.75,West,259,1.0,4.0,97,0.00,,,0.03,Wunderground v.1.15,2013-05-03 09:35:00,
2013-05-03 05:36:00,67.9,67.0,29.75,West,266,1.0,4.0,97,0.00,,,0.03,Wunderground v.1.15,2013-05-03 09:36:00,
2013-05-03 05:38:00,67.9,67.0,29.75,WSW,237,1.0,4.0,97,0.00,,,0.03,Wunderground v.1.15,2013-05-03 09:38:00,
2013-05-03 05:40:00,67.9,67.0,29.75,WSW,256,1.0,1.0,97,0.00,,,0.03,Wunderground v.1.15,2013-05-03 09:40:00,
2013-05-03 05:41:00,67.9,67.0,29.75,SW,225,1.0,4.0,97,0.00,,,0.03,Wunderground v.1.15,2013-05-03 09:41:00,
2013-05-03 05:43:00,67.8,66.9,29.75,SSW,194,1.0,4.0,97,0.00,,,0.03,Wunderground v.1.15,2013-05-03 09:43:00,
2013-05-03 05:48:00,67.8,66.9,29.75,ESE,111,1.0,4.0,97,0.00,,,0.03,Wunderground v.1.15,2013-05-03 09:48:00,
2013-05-03 05:49:00,67.8,66.9,29.75,SSW,198,1.0,4.0,97,0.00,,,0.03,Wunderground v.1.15,2013-05-03 09:49:00,
2013-05-03 05:50:00,67.8,66.9,29.75,WSW,257,1.0,4.0,97,0.00,,,0.03,Wunderground v.1.15,2013-05-03 09:50:00,
2013-05-03 05:51:00,67.8,66.9,29.75,SW,217,2.0,4.0,97,0.00,,,0.03,Wunderground v.1.15,2013-05-03 09:51:00,
2013-05-03 05:56:00,67.8,66.9,29.75,WSW,255,1.0,4.0,97,0.00,,,0.03,Wunderground v.1.15,2013-05-03 09:56:00,
2013-05-03 05:57:00,67.8,66.9,29.75,WSW,253,1.0,4.0,97,0.00,,,0.03,Wunderground v.1.15,2013-05-03 09:57:00,
2013-05-03 05:58:00,67.8,66.9,29.75,SW,220,1.0,4.0,97,0.00,,,0.03,Wunderground v.1.15,2013-05-03 09:58:00,
2013-05-03 06:02:00,67.8,66.9,29.75,SSW,194,1.0,2.0,97,0.00,,,0.03,Wunderground v.1.15,2013-05-03 10:02:00,
2013-05-03 06:04:00,67.8,66.9,29.75,WSW,248,1.0,2.0,97,0.00,,,0.03,Wunderground v.1.15,2013-05-03 10:04:00,
2013-05-03 06:06:00,67.8,66.9,29.75,SSW,210,1.0,2.0,97,0.00,,,0.03,Wunderground v.1.15,2013-05-03 10:06:00,
2013-05-03 06:07:00,67.8,66.9,29.75,WSW,242,1.0,2.0,97,0.00,,,0.03,Wunderground v.1.15,2013-05-03 10:07:00,
2013-05-03 06:09:00,67.8,66.9,29.76,WSW,242,1.0,2.0,97,0.00,,,0.03,Wunderground v.1.15,2013-05-03 10:09:00,
2013-05-03 06:11:00,67.8,66.9,29.75,SW,225,1.0,1.0,97,0.00,,,0.03,Wunderground v.1.15,2013-05-03 10:11:00,
2013-05-03 06:12:00,67.8,66.9,29.75,SW,227,1.0,1.0,97,0.00,,,0.03,Wunderground v.1.15,2013-05-03 10:12:00,
2013-05-03 06:16:00,67.7,66.8,29.75,SSW,209,1.0,1.0,97,0.00,,,0.03,Wunderground v.1.15,2013-05-03 10:16:00,
2013-05-03 06:18:00,67.8,66.9,29.75,WSW,241,1.0,1.0,97,0.00,,,0.03,Wunderground v.1.15,2013-05-03 10:18:00,
2013-05-03 06:19:00,67.8,66.9,29.75,SW,225,1.0,1.0,97,0.00,,,0.03,Wunderground v.1.15,2013-05-03 10:19:00,
2013-05-03 06:22:00,67.7,66.8,29.76,South,184,1.0,1.0,97,0.00,,,0.03,Wunderground v.1.15,2013-05-03 10:22:00,
2013-05-03 06:23:00,67.7,66.8,29.76,SW,226,1.0,1.0,97,0.00,,,0.03,Wunderground v.1.15,2013-05-03 10:23:00,
2013-05-03 06:24:00,67.7,66.8,29.76,SW,224,1.0,1.0,97,0.00,,,0.03,Wunderground v.1.15,2013-05-03 10:24:00,
2013-05-03 06:25:00,67.7,66.8,29.76,SW,233,1.0,1.0,97,0.00,,,0.03,Wunderground v.1.15,2013-05-03 10:25:00,
2013-05-03 06:28:00,67.7,66.8,29.76,SE,131,0.0,1.0,97,0.00,,,0.03,Wunderground v.1.15,2013-05-03 10:28:00,
2013-05-03 06:29:00,67.7,66.8,29.76,SW,220,0.0,1.0,97,0.00,,,0.03,Wunderground v.1.15,2013-05-03 10:29:00,
2013-05-03 06:30:00,67.7,66.8,29.76,WSW,243,0.0,0.0,97,0.00,,,0.03,Wunderground v.1.15,2013-05-03 10:30:00,
2013-05-03 06:31:00,67.7,66.8,29.75,West,262,0.0,4.0,97,0.00,,,0.03,Wunderground v.1.15,2013-05-03 10:31:00,
2013-05-03 06:35:00,67.6,66.7,29.76,SW,216,0.0,4.0,97,0.00,,,0.03,Wunderground v.1.15,2013-05-03 10:35:00,
2013-05-03 06:36:00,67.6,66.7,29.76,SSW,207,0.0,4.0,97,0.00,,,0.03,Wunderground v.1.15,2013-05-03 10:36:00,
2013-05-03 06:37:00,67.6,66.7,29.76,SSW,193,0.0,4.0,97,0.00,,,0.03,Wunderground v.1.15,2013-05-03 10:37:00,
2013-05-03 06:39:00,67.6,66.7,29.76,SSW,203,0.0,4.0,97,0.00,,,0.03,Wunderground v.1.15,2013-05-03 10:39:00,
2013-05-03 06:41:00,67.6,66.7,29.76,SW,221,0.0,4.0,97,0.00,,,0.03,Wunderground v.1.15,2013-05-03 10:41:00,
2013-05-03 06:43:00,67.6,66.7,29.76,SW,221,0.0,4.0,97,0.00,,,0.03,Wunderground v.1.15,2013-05-03 10:43:00,
2013-05-03 06:44:00,67.5,66.6,29.76,South,182,0.0,4.0,97,0.00,,,0.03,Wunderground v.1.15,2013-05-03 10:44:00,
2013-05-03 06:46:00,67.5,66.9,29.76,SW,215,0.0,4.0,98,0.00,,,0.03,Wunderground v.1.15,2013-05-03 10:46:00,
2013-05-03 06:47:00,67.5,66.9,29.76,SSW,201,1.0,4.0,98,0.00,,,0.03,Wunderground v.1.15,2013-05-03 10:47:00,
2013-05-03 06:48:00,67.5,66.9,29.76,SSW,200,0.0,4.0,98,0.00,,,0.03,Wunderground v.1.15,2013-05-03 10:48:00,
2013-05-03 06:54:00,67.5,66.9,29.76,SSE,150,0.0,4.0,98,0.00,,,0.03,Wunderground v.1.15,2013-05-03 10:54:00,
2013-05-03 06:55:00,67.5,66.9,29.76,WSW,241,0.0,4.0,98,0.00,,,0.03,Wunderground v.1.15,2013-05-03 10:55:00,
2013-05-03 06:56:00,67.5,66.9,29.76,SW,214,0.0,4.0,98,0.00,,,0.03,Wunderground v.1.15,2013-05-03 10:56:00,
2013-05-03 06:57:00,67.5,66.9,29.76,SW,214,0.0,4.0,98,0.00,,,0.03,Wunderground v.1.15,2013-05-03 10:57:00,
2013-05-03 06:58:00,67.5,66.9,29.76,SSW,213,0.0,4.0,98,0.00,,,0.03,Wunderground v.1.15,2013-05-03 10:58:00,
2013-05-03 07:00:00,67.5,66.9,29.76,SE,134,0.0,0.0,98,0.00,,,0.03,Wunderground v.1.15,2013-05-03 11:00:00,
2013-05-03 07:03:00,67.5,66.9,29.76,SW,215,0.0,1.0,98,0.00,,,0.03,Wunderground v.1.15,2013-05-03 11:03:00,
2013-05-03 07:04:00,67.5,66.9,29.76,SSE,165,0.0,1.0,98,0.00,,,0.03,Wunderground v.1.15,2013-05-03 11:04:00,
2013-05-03 07:08:00,67.5,66.9,29.76,South,178,1.0,1.0,98,0.00,,,0.03,Wunderground v.1.15,2013-05-03 11:08:00,
2013-05-03 07:09:00,67.5,66.9,29.76,SW,236,1.0,2.0,98,0.00,,,0.03,Wunderground v.1.15,2013-05-03 11:09:00,
2013-05-03 07:10:00,67.6,67.0,29.76,SW,232,1.0,1.0,98,0.00,,,0.03,Wunderground v.1.15,2013-05-03 11:10:00,
2013-05-03 07:12:00,67.7,67.1,29.76,SSW,212,1.0,2.0,98,0.00,,,0.03,Wunderground v.1.15,2013-05-03 11:12:00,
2013-05-03 07:13:00,67.8,67.2,29.76,WSW,252,1.0,2.0,98,0.00,,,0.03,Wunderground v.1.15,2013-05-03 11:13:00,
2013-05-03 07:15:00,67.9,67.3,29.76,SW,224,1.0,2.0,98,0.00,,,0.03,Wunderground v.1.15,2013-05-03 11:15:00,
2013-05-03 07:17:00,68.0,67.4,29.76,WSW,247,1.0,2.0,98,0.00,,,0.03,Wunderground v.1.15,2013-05-03 11:17:00,
2013-05-03 07:19:00,68.1,67.2,29.76,SSW,213,1.0,2.0,97,0.00,,,0.03,Wunderground v.1.15,2013-05-03 11:19:00,
2013-05-03 07:20:00,68.2,67.3,29.76,WSW,238,1.0,1.0,97,0.00,,,0.03,Wunderground v.1.15,2013-05-03 11:20:00,
2013-05-03 07:21:00,68.2,67.3,29.76,SW,225,1.0,1.0,97,0.00,,,0.03,Wunderground v.1.15,2013-05-03 11:21:00,
2013-05-03 07:25:00,68.4,67.5,29.76,SW,229,1.0,2.0,97,0.00,,,0.03,Wunderground v.1.15,2013-05-03 11:25:00,
2013-05-03 07:27:00,68.6,67.7,29.76,South,172,1.0,2.0,97,0.00,,,0.03,Wunderground v.1.15,2013-05-03 11:27:00,
2013-05-03 07:28:00,68.7,67.8,29.76,South,172,1.0,2.0,97,0.00,,,0.03,Wunderground v.1.15,2013-05-03 11:28:00,
2013-05-03 07:31:00,68.9,68.0,29.76,SE,139,0.0,1.0,97,0.00,,,0.03,Wunderground v.1.15,2013-05-03 11:31:00,
2013-05-03 07:33:00,69.0,68.1,29.76,SW,233,0.0,3.0,97,0.00,,,0.03,Wunderground v.1.15,2013-05-03 11:33:00,
2013-05-03 07:35:00,69.1,68.2,29.76,South,184,0.0,3.0,97,0.00,,,0.03,Wunderground v.1.15,2013-05-03 11:35:00,
2013-05-03 07:36:00,69.2,68.3,29.76,South,184,0.0,3.0,97,0.00,,,0.03,Wunderground v.1.15,2013-05-03 11:36:00,
2013-05-03 07:38:00,69.2,68.0,29.76,West,277,0.0,3.0,96,0.00,,,0.03,Wunderground v.1.15,2013-05-03 11:38:00,
2013-05-03 07:39:00,69.3,68.1,29.76,WSW,240,0.0,3.0,96,0.00,,,0.03,Wunderground v.1.15,2013-05-03 11:39:00,
2013-05-03 07:40:00,69.4,68.2,29.76,SW,225,0.0,3.0,96,0.00,,,0.03,Wunderground v.1.15,2013-05-03 11:40:00,
2013-05-03 07:44:00,69.6,68.4,29.76,South,189,0.0,3.0,96,0.00,,,0.03,Wunderground v.1.15,2013-05-03 11:44:00,
2013-05-03 07:45:00,69.6,68.4,29.76,SSW,207,0.0,3.0,96,0.00,,,0.03,Wunderground v.1.15,2013-05-03 11:45:00,
2013-05-03 07:49:00,69.9,68.7,29.76,SW,229,0.0,3.0,96,0.00,,,0.03,Wunderground v.1.15,2013-05-03 11:49:00,
2013-05-03 07:50:00,69.9,68.4,29.76,SSW,198,1.0,3.0,95,0.00,,,0.03,Wunderground v.1.15,2013-05-03 11:50:00,
2013-05-03 07:51:00,70.0,68.5,29.76,South,177,1.0,3.0,95,0.00,,,0.03,Wunderground v.1.15,2013-05-03 11:51:00,
2013-05-03 07:53:00,70.0,68.5,29.76,SSW,207,1.0,3.0,95,0.00,,,0.03,Wunderground v.1.15,2013-05-03 11:53:00,
2013-05-03 07:57:00,70.2,68.7,29.76,SW,224,1.0,3.0,95,0.00,,,0.03,Wunderground v.1.15,2013-05-03 11:57:00,
2013-05-03 07:59:00,70.3,68.8,29.76,SW,233,1.0,3.0,95,0.00,,,0.03,Wunderground v.1.15,2013-05-03 11:59:00,
2013-05-03 08:00:00,70.4,68.9,29.76,WSW,250,2.0,2.0,95,0.00,,,0.03,Wunderground v.1.15,2013-05-03 12:00:00,
2013-05-03 08:03:00,70.6,68.8,29.76,SW,216,1.0,4.0,94,0.00,,,0.03,Wunderground v.1.15,2013-05-03 12:03:00,
2013-05-03 08:04:00,70.7,68.9,29.76,SSW,206,2.0,4.0,94,0.00,,,0.03,Wunderground v.1.15,2013-05-03 12:04:00,
2013-05-03 08:07:00,70.8,69.0,29.76,SW,222,2.0,4.0,94,0.00,,,0.03,Wunderground v.1.15,2013-05-03 12:07:00,
2013-05-03 08:08:00,70.8,69.0,29.76,SW,235,2.0,4.0,94,0.00,,,0.03,Wunderground v.1.15,2013-05-03 12:08:00,
2013-05-03 08:09:00,70.9,69.1,29.76,SW,229,2.0,4.0,94,0.00,,,0.03,Wunderground v.1.15,2013-05-03 12:09:00,
2013-05-03 08:11:00,71.1,69.0,29.76,SW,221,2.0,2.0,93,0.00,,,0.03,Wunderground v.1.15,2013-05-03 12:11:00,
2013-05-03 08:12:00,71.1,69.3,29.76,SW,223,2.0,2.0,94,0.00,,,0.03,Wunderground v.1.15,2013-05-03 12:12:00,
2013-05-03 08:17:00,71.5,69.1,29.76,WSW,240,2.0,2.0,92,0.00,,,0.03,Wunderground v.1.15,2013-05-03 12:17:00,
2013-05-03 08:18:00,71.5,69.4,29.76,West,269,2.0,2.0,93,0.00,,,0.03,Wunderground v.1.15,2013-05-03 12:18:00,
2013-05-03 08:19:00,71.6,69.5,29.76,SW,226,2.0,3.0,93,0.00,,,0.03,Wunderground v.1.15,2013-05-03 12:19:00,
2013-05-03 08:20:00,71.7,69.3,29.76,WSW,246,2.0,2.0,92,0.00,,,0.03,Wunderground v.1.15,2013-05-03 12:20:00,
2013-05-03 08:24:00,72.2,70.1,29.76,SSW,211,1.0,2.0,93,0.00,,,0.03,Wunderground v.1.15,2013-05-03 12:24:00,
2013-05-03 08:26:00,72.4,69.9,29.76,SSW,211,1.0,2.0,92,0.00,,,0.03,Wunderground v.1.15,2013-05-03 12:26:00,
2013-05-03 08:30:00,73.0,69.9,29.76,WSW,240,1.0,1.0,90,0.00,,,0.03,Wunderground v.1.15,2013-05-03 12:30:00,
2013-05-03 08:31:00,73.1,70.3,29.76,SSW,207,1.0,3.0,91,0.00,,,0.03,Wunderground v.1.15,2013-05-03 12:31:00,
2013-05-03 08:32:00,73.2,70.1,29.76,South,182,1.0,3.0,90,0.00,,,0.03,Wunderground v.1.15,2013-05-03 12:32:00,
2013-05-03 08:35:00,73.2,69.8,29.76,SE,146,1.0,3.0,89,0.00,,,0.03,Wunderground v.1.15,2013-05-03 12:35:00,
2013-05-03 08:38:00,73.1,69.7,29.76,West,274,2.0,3.0,89,0.00,,,0.03,Wunderground v.1.15,2013-05-03 12:38:00,
2013-05-03 08:40:00,73.0,69.6,29.76,SW,224,2.0,2.0,89,0.00,,,0.03,Wunderground v.1.15,2013-05-03 12:40:00,
2013-05-03 08:41:00,73.0,69.6,29.76,South,169,2.0,3.0,89,0.00,,,0.03,Wunderground v.1.15,2013-05-03 12:41:00,
2013-05-03 08:42:00,72.9,69.5,29.76,WNW,295,2.0,3.0,89,0.00,,,0.03,Wunderground v.1.15,2013-05-03 12:42:00,
2013-05-03 08:46:00,73.0,69.2,29.76,SW,224,2.0,4.0,88,0.00,,,0.03,Wunderground v.1.15,2013-05-03 12:46:00,
2013-05-03 08:48:00,73.1,69.7,29.77,SW,236,2.0,4.0,89,0.00,,,0.03,Wunderground v.1.15,2013-05-03 12:48:00,
2013-05-03 08:49:00,73.1,69.3,29.76,East,101,2.0,4.0,88,0.00,,,0.03,Wunderground v.1.15,2013-05-03 12:49:00,
2013-05-03 08:52:00,73.4,69.6,29.76,West,264,2.0,3.0,88,0.00,,,0.03,Wunderground v.1.15,2013-05-03 12:52:00,
2013-05-03 08:53:00,73.5,69.4,29.77,West,275,2.0,4.0,87,0.00,,,0.03,Wunderground v.1.15,2013-05-03 12:53:00,
2013-05-03 08:56:00,73.7,69.6,29.77,SSE,163,2.0,5.0,87,0.00,,,0.03,Wunderground v.1.15,2013-05-03 12:56:00,
2013-05-03 08:58:00,73.9,69.8,29.77,SSE,155,2.0,5.0,87,0.00,,,0.03,Wunderground v.1.15,2013-05-03 12:58:00,
2013-05-03 08:59:00,74.0,69.9,29.77,WSW,256,2.0,5.0,87,0.00,,,0.03,Wunderground v.1.15,2013-05-03 12:59:00,
2013-05-03 09:01:00,74.2,69.7,29.77,South,169,2.0,2.0,86,0.00,,,0.03,Wunderground v.1.15,2013-05-03 13:01:00,
2013-05-03 09:04:00,74.5,70.0,29.77,SW,229,1.0,3.0,86,0.00,,,0.03,Wunderground v.1.15,2013-05-03 13:04:00,
2013-05-03 09:06:00,74.8,70.3,29.77,East,96,1.0,3.0,86,0.00,,,0.03,Wunderground v.1.15,2013-05-03 13:06:00,
2013-05-03 09:08:00,74.9,69.7,29.77,SSW,206,1.0,3.0,84,0.00,,,0.03,Wunderground v.1.15,2013-05-03 13:08:00,
2013-05-03 09:12:00,75.2,70.0,29.77,SSW,202,1.0,1.0,84,0.00,,,0.03,Wunderground v.1.15,2013-05-03 13:12:00,
2013-05-03 09:13:00,75.3,70.1,29.77,South,176,1.0,1.0,84,0.00,,,0.03,Wunderground v.1.15,2013-05-03 13:13:00,
2013-05-03 09:15:00,75.4,69.9,29.77,SSW,208,1.0,2.0,83,0.00,,,0.03,Wunderground v.1.15,2013-05-03 13:15:00,
2013-05-03 09:16:00,75.4,69.5,29.77,SW,217,1.0,3.0,82,0.00,,,0.03,Wunderground v.1.15,2013-05-03 13:16:00,
2013-05-03 09:22:00,75.6,70.1,29.77,SW,231,2.0,5.0,83,0.00,,,0.03,Wunderground v.1.15,2013-05-03 13:22:00,
2013-05-03 09:25:00,75.9,70.0,29.77,SSW,195,2.0,5.0,82,0.00,,,0.03,Wunderground v.1.15,2013-05-03 13:25:00,
2013-05-03 09:26:00,75.9,69.6,29.77,WSW,247,2.0,5.0,81,0.00,,,0.03,Wunderground v.1.15,2013-05-03 13:26:00,
2013-05-03 09:28:00,76.0,70.1,29.77,SSE,164,1.0,5.0,82,0.00,,,0.03,Wunderground v.1.15,2013-05-03 13:28:00,
2013-05-03 09:30:00,76.1,70.6,29.77,South,190,1.0,1.0,83,0.00,,,0.03,Wunderground v.1.15,2013-05-03 13:30:00,
2013-05-03 09:31:00,76.1,69.8,29.77,West,278,2.0,2.0,81,0.00,,,0.03,Wunderground v.1.15,2013-05-03 13:31:00,
2013-05-03 09:33:00,76.2,70.7,29.77,NNW,338,2.0,5.0,83,0.00,,,0.03,Wunderground v.1.15,2013-05-03 13:33:00,
2013-05-03 09:36:00,76.3,70.4,29.77,NW,314,1.0,5.0,82,0.00,,,0.03,Wunderground v.1.15,2013-05-03 13:36:00,
2013-05-03 09:37:00,76.2,70.3,29.77,NW,321,1.0,5.0,82,0.00,,,0.03,Wunderground v.1.15,2013-05-03 13:37:00,
2013-05-03 09:41:00,76.2,70.3,29.77,ESE,122,1.0,4.0,82,0.00,,,0.03,Wunderground v.1.15,2013-05-03 13:41:00,
2013-05-03 09:43:00,76.3,70.0,29.77,SSE,165,2.0,5.0,81,0.00,,,0.03,Wunderground v.1.15,2013-05-03 13:43:00,
2013-05-03 09:44:00,76.4,70.1,29.77,West,271,2.0,5.0,81,0.00,,,0.03,Wunderground v.1.15,2013-05-03 13:44:00,
2013-05-03 09:49:00,76.9,71.0,29.77,SE,136,2.0,5.0,82,0.00,,,0.03,Wunderground v.1.15,2013-05-03 13:49:00,
2013-05-03 09:52:00,77.1,70.5,29.77,SSW,196,2.0,5.0,80,0.00,,,0.03,Wunderground v.1.15,2013-05-03 13:52:00,
2013-05-03 09:53:00,77.2,70.5,29.77,NW,309,1.0,5.0,80,0.00,,,0.03,Wunderground v.1.15,2013-05-03 13:53:00,
2013-05-03 09:54:00,77.2,70.5,29.78,NNW,335,1.0,5.0,80,0.00,,,0.03,Wunderground v.1.15,2013-05-03 13:54:00,
2013-05-03 09:55:00,77.2,69.8,29.77,SSE,156,1.0,5.0,78,0.00,,,0.03,Wunderground v.1.15,2013-05-03 13:55:00,
2013-05-03 09:57:00,77.4,70.0,29.78,West,264,1.0,6.0,78,0.00,,,0.03,Wunderground v.1.15,2013-05-03 13:57:00,
2013-05-03 10:00:00,77.7,69.9,29.78,SW,217,2.0,6.0,77,0.00,,,0.03,Wunderground v.1.15,2013-05-03 14:00:00,
2013-05-03 10:01:00,77.6,70.2,29.78,SSW,206,2.0,6.0,78,0.00,,,0.03,Wunderground v.1.15,2013-05-03 14:01:00,
2013-05-03 10:03:00,77.7,70.3,29.78,SW,228,2.0,6.0,78,0.00,,,0.03,Wunderground v.1.15,2013-05-03 14:03:00,
2013-05-03 10:04:00,77.8,71.1,29.78,WNW,291,2.0,6.0,80,0.00,,,0.03,Wunderground v.1.15,2013-05-03 14:04:00,
2013-05-03 10:05:00,77.8,71.1,29.78,SSW,210,2.0,6.0,80,0.00,,,0.03,Wunderground v.1.15,2013-05-03 14:05:00,
2013-05-03 10:08:00,77.7,69.9,29.78,WSW,245,1.0,6.0,77,0.00,,,0.03,Wunderground v.1.15,2013-05-03 14:08:00,
2013-05-03 10:11:00,77.7,70.3,29.78,NW,309,2.0,3.0,78,0.00,,,0.03,Wunderground v.1.15,2013-05-03 14:11:00,
2013-05-03 10:14:00,77.1,70.1,29.77,NW,314,3.0,8.0,79,0.00,,,0.03,Wunderground v.1.15,2013-05-03 14:14:00,
2013-05-03 10:15:00,77.0,70.7,29.77,West,270,3.0,8.0,81,0.00,,,0.03,Wunderground v.1.15,2013-05-03 14:15:00,
2013-05-03 10:18:00,76.7,68.9,29.78,WSW,240,3.0,8.0,77,0.00,,,0.03,Wunderground v.1.15,2013-05-03 14:18:00,
2013-05-03 10:20:00,76.7,69.3,29.78,WSW,248,3.0,3.0,78,0.00,,,0.03,Wunderground v.1.15,2013-05-03 14:20:00,
2013-05-03 10:21:00,76.8,69.8,29.77,South,172,3.0,3.0,79,0.00,,,0.03,Wunderground v.1.15,2013-05-03 14:21:00,
2013-05-03 10:22:00,77.0,70.0,29.77,WNW,295,2.0,3.0,79,0.00,,,0.03,Wunderground v.1.15,2013-05-03 14:22:00,
2013-05-03 10:25:00,77.7,69.9,29.77,WNW,283,2.0,4.0,77,0.00,,,0.03,Wunderground v.1.15,2013-05-03 14:25:00,
2013-05-03 10:28:00,78.0,69.4,29.77,NW,319,2.0,4.0,75,0.00,,,0.03,Wunderground v.1.15,2013-05-03 14:28:00,
2013-05-03 10:29:00,78.0,70.2,29.77,SSW,193,2.0,4.0,77,0.00,,,0.03,Wunderground v.1.15,2013-05-03 14:29:00,
2013-05-03 10:31:00,78.1,69.5,29.78,WSW,240,3.0,7.0,75,0.00,,,0.03,Wunderground v.1.15,2013-05-03 14:31:00,
2013-05-03 10:33:00,78.3,70.1,29.78,WSW,237,2.0,7.0,76,0.00,,,0.03,Wunderground v.1.15,2013-05-03 14:33:00,
2013-05-03 10:34:00,78.5,70.3,29.78,West,260,3.0,7.0,76,0.00,,,0.03,Wunderground v.1.15,2013-05-03 14:34:00,
2013-05-03 10:35:00,78.5,69.1,29.78,SSE,158,3.0,7.0,73,0.00,,,0.03,Wunderground v.1.15,2013-05-03 14:35:00,
2013-05-03 10:37:00,78.7,69.7,29.78,ESE,103,2.0,7.0,74,0.00,,,0.03,Wunderground v.1.15,2013-05-03 14:37:00,
2013-05-03 10:38:00,78.8,69.4,29.78,SW,219,3.0,7.0,73,0.00,,,0.03,Wunderground v.1.15,2013-05-03 14:38:00,
2013-05-03 10:41:00,79.2,69.8,29.78,West,274,2.0,7.0,73,0.00,,,0.03,Wunderground v.1.15,2013-05-03 14:41:00,
2013-05-03 10:43:00,79.5,69.7,29.78,SSE,162,2.0,7.0,72,0.00,,,0.03,Wunderground v.1.15,2013-05-03 14:43:00,
2013-05-03 10:44:00,79.6,69.8,29.78,South,184,3.0,7.0,72,0.00,,,0.03,Wunderground v.1.15,2013-05-03 14:44:00,
2013-05-03 10:45:00,79.7,69.9,29.78,WSW,254,3.0,7.0,72,0.00,,,0.03,Wunderground v.1.15,2013-05-03 14:45:00,
2013-05-03 10:50:00,79.8,70.0,29.77,WNW,302,3.0,7.0,72,0.00,,,0.03,Wunderground v.1.15,2013-05-03 14:50:00,
2013-05-03 10:51:00,79.7,70.3,29.77,West,276,3.0,7.0,73,0.00,,,0.03,Wunderground v.1.15,2013-05-03 14:51:00,
2013-05-03 10:53:00,79.6,70.6,29.77,WNW,301,3.0,7.0,74,0.00,,,0.03,Wunderground v.1.15,2013-05-03 14:53:00,
2013-05-03 10:56:00,79.3,70.7,29.77,SSW,210,3.0,7.0,75,0.00,,,0.03,Wunderground v.1.15,2013-05-03 14:56:00,
2013-05-03 10:58:00,79.2,69.4,29.77,West,272,3.0,7.0,72,0.00,,,0.03,Wunderground v.1.15,2013-05-03 14:58:00,
2013-05-03 10:59:00,79.3,69.9,29.77,SSW,212,3.0,7.0,73,0.00,,,0.03,Wunderground v.1.15,2013-05-03 14:59:00,
2013-05-03 11:00:00,79.4,69.2,29.77,SW,217,3.0,3.0,71,0.00,,,0.03,Wunderground v.1.15,2013-05-03 15:00:00,
2013-05-03 11:02:00,79.5,69.7,29.77,SW,215,3.0,3.0,72,0.00,,,0.03,Wunderground v.1.15,2013-05-03 15:02:00,
2013-05-03 11:06:00,79.9,70.1,29.77,WNW,297,2.0,5.0,72,0.00,,,0.03,Wunderground v.1.15,2013-05-03 15:06:00,
2013-05-03 11:07:00,80.0,70.6,29.77,NW,306,2.0,5.0,73,0.00,,,0.03,Wunderground v.1.15,2013-05-03 15:07:00,
2013-05-03 11:08:00,80.1,71.5,29.77,West,266,2.0,5.0,75,0.00,,,0.03,Wunderground v.1.15,2013-05-03 15:08:00,
2013-05-03 11:09:00,80.1,70.7,29.77,SSE,168,2.0,5.0,73,0.00,,,0.03,Wunderground v.1.15,2013-05-03 15:09:00,
2013-05-03 11:11:00,80.4,69.7,29.77,WNW,300,2.0,3.0,70,0.00,,,0.03,Wunderground v.1.15,2013-05-03 15:11:00,
2013-05-03 11:13:00,80.4,70.1,29.77,North,359,2.0,3.0,71,0.00,,,0.03,Wunderground v.1.15,2013-05-03 15:13:00,
2013-05-03 11:15:00,80.5,69.8,29.77,NW,319,2.0,3.0,70,0.00,,,0.03,Wunderground v.1.15,2013-05-03 15:15:00,
2013-05-03 11:17:00,80.4,70.1,29.77,SSW,210,2.0,3.0,71,0.00,,,0.03,Wunderground v.1.15,2013-05-03 15:17:00,
2013-05-03 11:18:00,80.4,69.3,29.77,WNW,300,2.0,4.0,69,0.00,,,0.03,Wunderground v.1.15,2013-05-03 15:18:00,
2013-05-03 11:20:00,80.2,69.9,29.77,WNW,293,2.0,4.0,71,0.00,,,0.03,Wunderground v.1.15,2013-05-03 15:20:00,
2013-05-03 11:21:00,80.1,70.7,29.77,NW,320,2.0,4.0,73,0.00,,,0.03,Wunderground v.1.15,2013-05-03 15:21:00,
2013-05-03 11:24:00,79.9,70.5,29.77,SSE,160,3.0,4.0,73,0.00,,,0.03,Wunderground v.1.15,2013-05-03 15:24:00,
2013-05-03 11:26:00,80.1,69.4,29.77,West,280,3.0,4.0,70,0.00,,,0.03,Wunderground v.1.15,2013-05-03 15:26:00,
2013-05-03 11:27:00,80.3,70.0,29.77,NNE,16,3.0,4.0,71,0.00,,,0.03,Wunderground v.1.15,2013-05-03 15:27:00,
2013-05-03 11:30:00,81.0,70.3,29.77,WNW,297,2.0,2.0,70,0.00,,,0.03,Wunderground v.1.15,2013-05-03 15:30:00,
2013-05-03 11:31:00,81.3,70.2,29.77,West,263,2.0,8.0,69,0.00,,,0.03,Wunderground v.1.15,2013-05-03 15:31:00,
2013-05-03 11:33:00,81.7,71.0,29.77,NW,312,2.0,8.0,70,0.00,,,0.03,Wunderground v.1.15,2013-05-03 15:33:00,
2013-05-03 11:34:00,81.8,70.2,29.77,WSW,250,2.0,8.0,68,0.00,,,0.03,Wunderground v.1.15,2013-05-03 15:34:00,
2013-05-03 11:36:00,82.0,70.4,29.77,NW,310,1.0,8.0,68,0.00,,,0.03,Wunderground v.1.15,2013-05-03 15:36:00,
2013-05-03 11:37:00,82.1,70.9,29.78,WNW,297,1.0,8.0,69,0.00,,,0.03,Wunderground v.1.15,2013-05-03 15:37:00,
2013-05-03 11:39:00,82.1,71.3,29.77,ESE,118,1.0,8.0,70,0.00,,,0.03,Wunderground v.1.15,2013-05-03 15:39:00,
2013-05-03 11:42:00,82.3,70.7,29.77,NW,309,2.0,8.0,68,0.00,,,0.03,Wunderground v.1.15,2013-05-03 15:42:00,
2013-05-03 11:47:00,82.9,70.4,29.78,SW,227,2.0,8.0,66,0.00,,,0.03,Wunderground v.1.15,2013-05-03 15:47:00,
2013-05-03 11:48:00,82.8,70.3,29.78,NNW,332,2.0,8.0,66,0.00,,,0.03,Wunderground v.1.15,2013-05-03 15:48:00,
2013-05-03 11:52:00,82.3,69.8,29.77,WNW,296,2.0,8.0,66,0.00,,,0.03,Wunderground v.1.15,2013-05-03 15:52:00,
2013-05-03 11:53:00,82.1,69.6,29.77,West,268,2.0,8.0,66,0.00,,,0.03,Wunderground v.1.15,2013-05-03 15:53:00,
2013-05-03 11:54:00,81.9,69.9,29.77,WNW,302,2.0,8.0,67,0.00,,,0.03,Wunderground v.1.15,2013-05-03 15:54:00,
2013-05-03 11:57:00,81.7,69.7,29.77,SW,215,3.0,8.0,67,0.00,,,0.03,Wunderground v.1.15,2013-05-03 15:57:00,
2013-05-03 11:58:00,81.9,69.4,29.77,SSW,202,3.0,8.0,66,0.00,,,0.03,Wunderground v.1.15,2013-05-03 15:58:00,
2013-05-03 12:00:00,82.4,69.4,29.77,West,268,3.0,3.0,65,0.00,,,0.03,Wunderground v.1.15,2013-05-03 16:00:00,
2013-05-03 12:01:00,82.6,69.6,29.77,SSE,160,3.0,3.0,65,0.00,,,0.03,Wunderground v.1.15,2013-05-03 16:01:00,
2013-05-03 12:02:00,82.7,69.3,29.77,SW,214,3.0,4.0,64,0.00,,,0.03,Wunderground v.1.15,2013-05-03 16:02:00,
2013-05-03 12:05:00,83.0,70.9,29.77,WNW,285,3.0,4.0,67,0.00,,,0.03,Wunderground v.1.15,2013-05-03 16:05:00,
2013-05-03 12:07:00,82.6,69.6,29.77,WNW,303,3.0,4.0,65,0.00,,,0.03,Wunderground v.1.15,2013-05-03 16:07:00,
2013-05-03 12:09:00,82.2,69.3,29.77,West,274,3.0,4.0,65,0.00,,,0.03,Wunderground v.1.15,2013-05-03 16:09:00,
2013-05-03 12:11:00,82.6,69.2,29.77,SSW,204,3.0,4.0,64,0.00,,,0.03,Wunderground v.1.15,2013-05-03 16:11:00,
2013-05-03 12:14:00,83.2,70.2,29.76,SW,226,3.0,5.0,65,0.00,,,0.03,Wunderground v.1.15,2013-05-03 16:14:00,
2013-05-03 12:15:00,83.2,70.7,29.76,South,187,3.0,5.0,66,0.00,,,0.03,Wunderground v.1.15,2013-05-03 16:15:00,
2013-05-03 12:16:00,83.2,69.3,29.77,SW,214,3.0,5.0,63,0.00,,,0.03,Wunderground v.1.15,2013-05-03 16:16:00,
2013-05-03 12:19:00,83.6,69.2,29.77,South,181,3.0,5.0,62,0.00,,,0.03,Wunderground v.1.15,2013-05-03 16:19:00,
2013-05-03 12:20:00,83.7,68.8,29.76,WNW,302,3.0,3.0,61,0.00,,,0.03,Wunderground v.1.15,2013-05-03 16:20:00,
2013-05-03 12:21:00,83.7,69.8,29.76,NW,304,3.0,6.0,63,0.00,,,0.03,Wunderground v.1.15,2013-05-03 16:21:00,
2013-05-03 12:23:00,82.8,68.9,29.76,NW,304,3.0,6.0,63,0.00,,,0.03,Wunderground v.1.15,2013-05-03 16:23:00,
2013-05-03 12:26:00,82.2,69.7,29.77,West,274,3.0,6.0,66,0.00,,,0.03,Wunderground v.1.15,2013-05-03 16:26:00,
2013-05-03 12:29:00,83.1,69.2,29.76,SE,146,3.0,6.0,63,0.00,,,0.03,Wunderground v.1.15,2013-05-03 16:29:00,
2013-05-03 12:30:00,83.6,69.7,29.76,South,169,3.0,3.0,63,0.00,,,0.03,Wunderground v.1.15,2013-05-03 16:30:00,
2013-05-03 12:32:00,83.8,68.4,29.76,NW,310,3.0,7.0,60,0.00,,,0.03,Wunderground v.1.15,2013-05-03 16:32:00,
2013-05-03 12:35:00,83.2,70.7,29.76,WNW,282,2.0,7.0,66,0.00,,,0.03,Wunderground v.1.15,2013-05-03 16:35:00,
2013-05-03 12:36:00,83.2,70.7,29.76,SSE,150,2.0,7.0,66,0.00,,,0.03,Wunderground v.1.15,2013-05-03 16:36:00,
2013-05-03 12:37:00,83.4,69.0,29.76,West,265,3.0,7.0,62,0.00,,,0.03,Wunderground v.1.15,2013-05-03 16:37:00,
2013-05-03 12:41:00,83.9,70.0,29.76,WNW,299,2.0,7.0,63,0.00,,,0.03,Wunderground v.1.15,2013-05-03 16:41:00,
2013-05-03 12:42:00,83.9,70.4,29.76,NNW,333,2.0,7.0,64,0.00,,,0.03,Wunderground v.1.15,2013-05-03 16:42:00,
2013-05-03 12:43:00,83.9,70.4,29.76,NNW,332,2.0,7.0,64,0.00,,,0.03,Wunderground v.1.15,2013-05-03 16:43:00,
2013-05-03 12:45:00,83.0,68.6,29.76,WNW,300,2.0,7.0,62,0.00,,,0.03,Wunderground v.1.15,2013-05-03 16:45:00,
2013-05-03 12:46:00,82.6,69.6,29.76,WNW,295,2.0,7.0,65,0.00,,,0.03,Wunderground v.1.15,2013-05-03 16:46:00,
2013-05-03 12:48:00,82.1,69.2,29.75,SSE,150,2.0,7.0,65,0.00,,,0.03,Wunderground v.1.15,2013-05-03 16:48:00,
2013-05-03 12:49:00,82.1,68.3,29.75,West,271,3.0,7.0,63,0.00,,,0.03,Wunderground v.1.15,2013-05-03 16:49:00,
2013-05-03 12:51:00,82.2,70.1,29.75,WSW,240,3.0,7.0,67,0.00,,,0.03,Wunderground v.1.15,2013-05-03 16:51:00,
2013-05-03 12:53:00,82.4,71.2,29.75,NW,307,3.0,7.0,69,0.00,,,0.03,Wunderground v.1.15,2013-05-03 16:53:00,
2013-05-03 12:54:00,82.3,69.4,29.75,NW,305,3.0,7.0,65,0.00,,,0.03,Wunderground v.1.15,2013-05-03 16:54:00,
2013-05-03 12:55:00,82.4,70.3,29.75,ESE,117,3.0,7.0,67,0.00,,,0.03,Wunderground v.1.15,2013-05-03 16:55:00,
2013-05-03 12:59:00,82.4,68.5,29.75,NNW,329,3.0,7.0,63,0.00,,,0.03,Wunderground v.1.15,2013-05-03 16:59:00,
2013-05-03 13:00:00,82.4,68.5,29.75,NW,304,2.0,3.0,63,0.00,,,0.03,Wunderground v.1.15,2013-05-03 17:00:00,
2013-05-03 13:02:00,82.4,69.4,29.75,NW,311,3.0,6.0,65,0.00,,,0.03,Wunderground v.1.15,2013-05-03 17:02:00,
2013-05-03 13:05:00,82.0,69.1,29.75,NW,306,3.0,8.0,65,0.00,,,0.03,Wunderground v.1.15,2013-05-03 17:05:00,
2013-05-03 13:07:00,82.1,69.2,29.75,SW,222,4.0,8.0,65,0.00,,,0.03,Wunderground v.1.15,2013-05-03 17:07:00,
2013-05-03 13:08:00,82.1,70.1,29.75,NW,316,4.0,8.0,67,0.00,,,0.03,Wunderground v.1.15,2013-05-03 17:08:00,
2013-05-03 13:11:00,82.6,69.6,29.75,NW,319,4.0,4.0,65,0.00,,,0.03,Wunderground v.1.15,2013-05-03 17:11:00,
2013-05-03 13:13:00,82.7,68.8,29.75,NNW,344,4.0,4.0,63,0.00,,,0.03,Wunderground v.1.15,2013-05-03 17:13:00,
2013-05-03 13:14:00,82.7,68.4,29.75,NW,312,4.0,6.0,62,0.00,,,0.03,Wunderground v.1.15,2013-05-03 17:14:00,
2013-05-03 13:15:00,82.6,70.1,29.75,NW,311,4.0,6.0,66,0.00,,,0.03,Wunderground v.1.15,2013-05-03 17:15:00,
2013-05-03 13:18:00,82.4,69.4,29.75,West,281,4.0,6.0,65,0.00,,,0.03,Wunderground v.1.15,2013-05-03 17:18:00,
2013-05-03 13:21:00,82.8,67.5,29.75,WSW,247,3.0,3.0,60,0.00,,,0.03,Wunderground v.1.15,2013-05-03 17:21:00,
2013-05-03 13:22:00,82.9,68.5,29.75,NNW,335,3.0,3.0,62,0.00,,,0.03,Wunderground v.1.15,2013-05-03 17:22:00,
2013-05-03 13:23:00,83.1,68.7,29.75,WNW,288,3.0,5.0,62,0.00,,,0.03,Wunderground v.1.15,2013-05-03 17:23:00,
2013-05-03 13:24:00,83.1,69.7,29.75,NNW,333,3.0,9.0,64,0.00,,,0.03,Wunderground v.1.15,2013-05-03 17:24:00,
2013-05-03 13:26:00,83.0,67.2,29.74,South,182,3.0,9.0,59,0.00,,,0.03,Wunderground v.1.15,2013-05-03 17:26:00,
2013-05-03 13:28:00,83.6,69.2,29.74,NW,313,3.0,9.0,62,0.00,,,0.03,Wunderground v.1.15,2013-05-03 17:28:00,
2013-05-03 13:30:00,84.0,68.6,29.74,SE,126,3.0,6.0,60,0.00,,,0.03,Wunderground v.1.15,2013-05-03 17:30:00,
2013-05-03 13:32:00,84.6,67.7,29.74,West,261,3.0,10.0,57,0.00,,,0.03,Wunderground v.1.15,2013-05-03 17:32:00,
2013-05-03 13:34:00,85.2,68.2,29.74,South,176,3.0,10.0,57,0.00,,,0.03,Wunderground v.1.15,2013-05-03 17:34:00,
2013-05-03 13:36:00,85.6,69.1,29.74,WNW,295,3.0,10.0,58,0.00,,,0.03,Wunderground v.1.15,2013-05-03 17:36:00,
2013-05-03 13:37:00,85.6,69.1,29.74,SSW,205,3.0,10.0,58,0.00,,,0.03,Wunderground v.1.15,2013-05-03 17:37:00,
2013-05-03 13:38:00,85.6,68.6,29.74,WSW,240,3.0,10.0,57,0.00,,,0.03,Wunderground v.1.15,2013-05-03 17:38:00,
2013-05-03 13:40:00,85.7,68.7,29.74,WNW,283,2.0,10.0,57,0.00,,,0.03,Wunderground v.1.15,2013-05-03 17:40:00,
2013-05-03 13:42:00,85.4,68.9,29.74,NW,304,2.0,10.0,58,0.00,,,0.03,Wunderground v.1.15,2013-05-03 17:42:00,
2013-05-03 13:46:00,84.7,67.8,29.74,WNW,288,3.0,10.0,57,0.00,,,0.03,Wunderground v.1.15,2013-05-03 17:46:00,
2013-05-03 13:47:00,84.7,67.8,29.74,SSE,147,3.0,10.0,57,0.00,,,0.03,Wunderground v.1.15,2013-05-03 17:47:00,
2013-05-03 13:48:00,84.9,68.0,29.74,ESE,104,3.0,10.0,57,0.00,,,0.03,Wunderground v.1.15,2013-05-03 17:48:00,
2013-05-03 13:49:00,85.0,67.5,29.74,NW,305,3.0,10.0,56,0.00,,,0.03,Wunderground v.1.15,2013-05-03 17:49:00,
2013-05-03 13:52:00,85.1,69.2,29.74,SSW,203,2.0,10.0,59,0.00,,,0.03,Wunderground v.1.15,2013-05-03 17:52:00,
2013-05-03 13:54:00,85.5,68.5,29.74,SW,221,2.0,10.0,57,0.00,,,0.03,Wunderground v.1.15,2013-05-03 17:54:00,
2013-05-03 13:55:00,85.7,67.7,29.74,SW,235,2.0,10.0,55,0.00,,,0.03,Wunderground v.1.15,2013-05-03 17:55:00,
2013-05-03 13:57:00,85.9,68.9,29.73,SW,226,2.0,10.0,57,0.00,,,0.03,Wunderground v.1.15,2013-05-03 17:57:00,
2013-05-03 14:00:00,85.9,67.3,29.74,SW,216,2.0,6.0,54,0.00,,,0.03,Wunderground v.1.15,2013-05-03 18:00:00,
2013-05-03 14:03:00,86.3,67.2,29.74,NW,319,2.0,6.0,53,0.00,,,0.03,Wunderground v.1.15,2013-05-03 18:03:00,
2013-05-03 14:05:00,85.9,67.3,29.73,NW,307,3.0,6.0,54,0.00,,,0.03,Wunderground v.1.15,2013-05-03 18:05:00,
2013-05-03 14:08:00,84.7,67.3,29.73,SW,219,2.0,6.0,56,0.00,,,0.03,Wunderground v.1.15,2013-05-03 18:08:00,
2013-05-03 14:09:00,84.7,67.3,29.73,South,186,3.0,6.0,56,0.00,,,0.03,Wunderground v.1.15,2013-05-03 18:09:00,
2013-05-03 14:10:00,84.9,69.0,29.73,South,184,3.0,3.0,59,0.00,,,0.03,Wunderground v.1.15,2013-05-03 18:10:00,
2013-05-03 14:11:00,85.2,69.3,29.73,NW,307,2.0,3.0,59,0.00,,,0.03,Wunderground v.1.15,2013-05-03 18:11:00,
2013-05-03 14:14:00,86.1,68.6,29.73,SSW,203,2.0,4.0,56,0.00,,,0.03,Wunderground v.1.15,2013-05-03 18:14:00,
2013-05-03 14:15:00,86.3,68.2,29.73,SSE,148,2.0,4.0,55,0.00,,,0.03,Wunderground v.1.15,2013-05-03 18:15:00,
2013-05-03 14:16:00,86.5,66.8,29.73,SE,146,2.0,4.0,52,0.00,,,0.03,Wunderground v.1.15,2013-05-03 18:16:00,
2013-05-03 14:19:00,87.0,67.8,29.72,NW,308,2.0,4.0,53,0.00,,,0.03,Wunderground v.1.15,2013-05-03 18:19:00,
2013-05-03 14:21:00,86.5,68.9,29.72,WNW,288,2.0,8.0,56,0.00,,,0.03,Wunderground v.1.15,2013-05-03 18:21:00,
2013-05-03 14:22:00,86.4,67.8,29.72,WSW,254,2.0,8.0,54,0.00,,,0.03,Wunderground v.1.15,2013-05-03 18:22:00,
2013-05-03 14:24:00,86.2,68.1,29.72,NW,308,2.0,8.0,55,0.00,,,0.03,Wunderground v.1.15,2013-05-03 18:24:00,
2013-05-03 14:28:00,85.2,68.8,29.72,NW,315,3.0,8.0,58,0.00,,,0.03,Wunderground v.1.15,2013-05-03 18:28:00,
2013-05-03 14:30:00,85.0,68.6,29.72,NW,321,3.0,3.0,58,0.00,,,0.03,Wunderground v.1.15,2013-05-03 18:30:00,
2013-05-03 14:32:00,84.7,66.7,29.72,NNW,330,3.0,11.0,55,0.00,,,0.03,Wunderground v.1.15,2013-05-03 18:32:00,
2013-05-03 14:34:00,84.4,68.0,29.71,NW,321,3.0,11.0,58,0.00,,,0.03,Wunderground v.1.15,2013-05-03 18:34:00,
2013-05-03 14:36:00,84.4,68.0,29.71,NW,304,3.0,11.0,58,0.00,,,0.03,Wunderground v.1.15,2013-05-03 18:36:00,
2013-05-03 14:39:00,84.6,70.1,29.71,NW,319,3.0,11.0,62,0.00,,,0.03,Wunderground v.1.15,2013-05-03 18:39:00,
2013-05-03 14:40:00,84.5,69.1,29.71,NW,306,3.0,11.0,60,0.00,,,0.03,Wunderground v.1.15,2013-05-03 18:40:00,
2013-05-03 14:43:00,84.3,68.9,29.71,WNW,289,4.0,11.0,60,0.00,,,0.03,Wunderground v.1.15,2013-05-03 18:43:00,
2013-05-03 14:44:00,84.3,68.4,29.71,WNW,285,4.0,11.0,59,0.00,,,0.03,Wunderground v.1.15,2013-05-03 18:44:00,
2013-05-03 14:45:00,84.2,68.3,29.71,WNW,285,3.0,11.0,59,0.00,,,0.03,Wunderground v.1.15,2013-05-03 18:45:00,
2013-05-03 14:46:00,84.1,67.7,29.71,WNW,285,3.0,11.0,58,0.00,,,0.03,Wunderground v.1.15,2013-05-03 18:46:00,
2013-05-03 14:49:00,84.6,68.7,29.71,SE,131,2.0,11.0,59,0.00,,,0.03,Wunderground v.1.15,2013-05-03 18:49:00,
2013-05-03 14:51:00,85.2,68.2,29.71,NW,311,2.0,3.0,57,0.00,,,0.03,Wunderground v.1.15,2013-05-03 18:51:00,
2013-05-03 14:53:00,85.5,70.0,29.70,WNW,300,1.0,11.0,60,0.00,,,0.03,Wunderground v.1.15,2013-05-03 18:53:00,
2013-05-03 14:54:00,85.7,68.7,29.71,South,182,1.0,11.0,57,0.00,,,0.03,Wunderground v.1.15,2013-05-03 18:54:00,
2013-05-03 14:57:00,86.4,68.3,29.71,SW,223,1.0,11.0,55,0.00,,,0.03,Wunderground v.1.15,2013-05-03 18:57:00,
2013-05-03 15:00:00,86.3,68.2,29.71,WNW,301,2.0,3.0,55,0.00,,,0.03,Wunderground v.1.15,2013-05-03 19:00:00,
2013-05-03 15:04:00,85.6,68.6,29.70,NW,311,3.0,6.0,57,0.00,,,0.03,Wunderground v.1.15,2013-05-03 19:04:00,
2013-05-03 15:05:00,85.4,66.9,29.70,WNW,302,3.0,6.0,54,0.00,,,0.03,Wunderground v.1.15,2013-05-03 19:05:00,
2013-05-03 15:08:00,85.3,67.3,29.70,NW,318,3.0,6.0,55,0.00,,,0.03,Wunderground v.1.15,2013-05-03 19:08:00,
2013-05-03 15:10:00,85.1,68.2,29.70,NW,315,4.0,4.0,57,0.00,,,0.03,Wunderground v.1.15,2013-05-03 19:10:00,
2013-05-03 15:13:00,85.0,67.5,29.70,West,262,3.0,4.0,56,0.00,,,0.03,Wunderground v.1.15,2013-05-03 19:13:00,
2013-05-03 15:14:00,85.2,68.2,29.70,SE,142,3.0,4.0,57,0.00,,,0.03,Wunderground v.1.15,2013-05-03 19:14:00,
2013-05-03 15:16:00,85.7,68.2,29.70,SSW,203,3.0,4.0,56,0.00,,,0.03,Wunderground v.1.15,2013-05-03 19:16:00,
2013-05-03 15:19:00,86.6,68.0,29.70,NW,311,2.0,6.0,54,0.00,,,0.03,Wunderground v.1.15,2013-05-03 19:19:00,
2013-05-03 15:20:00,86.6,67.4,29.70,WNW,293,2.0,2.0,53,0.00,,,0.03,Wunderground v.1.15,2013-05-03 19:20:00,
2013-05-03 15:23:00,87.0,67.2,29.70,SSE,153,2.0,3.0,52,0.00,,,0.03,Wunderground v.1.15,2013-05-03 19:23:00,
2013-05-03 15:26:00,88.0,67.0,29.70,NW,321,2.0,3.0,50,0.00,,,0.03,Wunderground v.1.15,2013-05-03 19:26:00,
2013-05-03 15:27:00,88.0,67.0,29.70,NW,307,2.0,3.0,50,0.00,,,0.03,Wunderground v.1.15,2013-05-03 19:27:00,
2013-05-03 15:29:00,87.7,67.3,29.70,WSW,238,2.0,3.0,51,0.00,,,0.03,Wunderground v.1.15,2013-05-03 19:29:00,
2013-05-03 15:33:00,87.9,68.6,29.70,SW,232,2.0,8.0,53,0.00,,,0.03,Wunderground v.1.15,2013-05-03 19:33:00,
2013-05-03 15:35:00,88.1,67.7,29.69,West,272,2.0,8.0,51,0.00,,,0.03,Wunderground v.1.15,2013-05-03 19:35:00,
2013-05-03 15:36:00,88.2,67.2,29.69,NW,314,2.0,8.0,50,0.00,,,0.03,Wunderground v.1.15,2013-05-03 19:36:00,
2013-05-03 15:37:00,88.0,68.7,29.69,West,270,2.0,8.0,53,0.00,,,0.03,Wunderground v.1.15,2013-05-03 19:37:00,
2013-05-03 15:38:00,87.7,67.3,29.69,WNW,290,2.0,8.0,51,0.00,,,0.03,Wunderground v.1.15,2013-05-03 19:38:00,
2013-05-03 15:41:00,86.5,67.3,29.69,NW,311,2.0,8.0,53,0.00,,,0.03,Wunderground v.1.15,2013-05-03 19:41:00,
2013-05-03 15:42:00,86.1,66.4,29.69,NW,310,2.0,8.0,52,0.00,,,0.03,Wunderground v.1.15,2013-05-03 19:42:00,
2013-05-03 15:47:00,85.7,66.0,29.69,WSW,250,1.0,8.0,52,0.00,,,0.03,Wunderground v.1.15,2013-05-03 19:47:00,
2013-05-03 15:48:00,85.7,67.1,29.69,WNW,285,1.0,8.0,54,0.00,,,0.03,Wunderground v.1.15,2013-05-03 19:48:00,
2013-05-03 15:50:00,85.9,67.3,29.69,SSE,148,1.0,8.0,54,0.00,,,0.03,Wunderground v.1.15,2013-05-03 19:50:00,
2013-05-03 15:52:00,86.1,66.4,29.68,East,98,1.0,8.0,52,0.00,,,0.03,Wunderground v.1.15,2013-05-03 19:52:00,
2013-05-03 15:53:00,86.3,68.2,29.68,WNW,285,1.0,8.0,55,0.00,,,0.03,Wunderground v.1.15,2013-05-03 19:53:00,
2013-05-03 15:58:00,86.1,67.0,29.68,South,169,1.0,8.0,53,0.00,,,0.03,Wunderground v.1.15,2013-05-03 19:58:00,
2013-05-03 15:59:00,86.2,67.1,29.69,South,187,1.0,8.0,53,0.00,,,0.03,Wunderground v.1.15,2013-05-03 19:59:00,
2013-05-03 16:00:00,86.3,67.2,29.69,South,187,1.0,1.0,53,0.00,,,0.03,Wunderground v.1.15,2013-05-03 20:00:00,
2013-05-03 16:04:00,86.1,67.5,29.68,WSW,252,0.0,1.0,54,0.00,,,0.03,Wunderground v.1.15,2013-05-03 20:04:00,
2013-05-03 16:05:00,85.9,66.2,29.68,WSW,252,0.0,1.0,52,0.00,,,0.03,Wunderground v.1.15,2013-05-03 20:05:00,
2013-05-03 16:06:00,85.8,67.2,29.68,NW,309,0.0,2.0,54,0.00,,,0.03,Wunderground v.1.15,2013-05-03 20:06:00,
2013-05-03 16:07:00,85.6,67.6,29.69,NW,311,0.0,2.0,55,0.00,,,0.03,Wunderground v.1.15,2013-05-03 20:07:00,
2013-05-03 16:09:00,85.2,68.2,29.68,NW,311,0.0,2.0,57,0.00,,,0.03,Wunderground v.1.15,2013-05-03 20:09:00,
2013-05-03 16:10:00,85.1,69.2,29.68,NW,312,0.0,0.0,59,0.00,,,0.04,Wunderground v.1.15,2013-05-03 20:10:00,
2013-05-03 16:13:00,84.4,71.3,29.68,NE,48,1.0,2.0,65,0.00,,,0.04,Wunderground v.1.15,2013-05-03 20:13:00,
2013-05-03 16:14:00,84.1,70.1,29.68,NE,39,1.0,2.0,63,0.00,,,0.04,Wunderground v.1.15,2013-05-03 20:14:00,
2013-05-03 16:16:00,83.7,70.2,29.68,NW,323,1.0,2.0,64,0.00,,,0.04,Wunderground v.1.15,2013-05-03 20:16:00,
2013-05-03 16:17:00,83.6,69.7,29.68,NNW,343,0.0,2.0,63,0.00,,,0.04,Wunderground v.1.15,2013-05-03 20:17:00,
2013-05-03 16:20:00,83.1,68.3,29.68,NNE,32,1.0,1.0,61,0.00,,,0.04,Wunderground v.1.15,2013-05-03 20:20:00,
2013-05-03 16:22:00,83.0,70.0,29.68,ENE,59,0.0,1.0,65,0.00,,,0.04,Wunderground v.1.15,2013-05-03 20:22:00,
2013-05-03 16:24:00,82.8,70.7,29.68,SE,124,1.0,4.0,67,0.00,,,0.04,Wunderground v.1.15,2013-05-03 20:24:00,
2013-05-03 16:26:00,82.6,71.8,29.68,NNE,12,1.0,5.0,70,0.00,,,0.04,Wunderground v.1.15,2013-05-03 20:26:00,
2013-05-03 16:29:00,81.8,71.5,29.68,ENE,71,2.0,8.0,71,0.00,,,0.04,Wunderground v.1.15,2013-05-03 20:29:00,
2013-05-03 16:30:00,81.6,71.3,29.68,NE,44,3.0,3.0,71,0.00,,,0.04,Wunderground v.1.15,2013-05-03 20:30:00,
2013-05-03 16:31:00,81.4,71.5,29.68,ENE,61,3.0,8.0,72,0.00,,,0.04,Wunderground v.1.15,2013-05-03 20:31:00,
2013-05-03 16:32:00,81.2,71.3,29.68,ENE,70,3.0,8.0,72,0.00,,,0.04,Wunderground v.1.15,2013-05-03 20:32:00,
2013-05-03 16:34:00,80.9,72.2,29.68,East,86,3.0,8.0,75,0.00,,,0.04,Wunderground v.1.15,2013-05-03 20:34:00,
2013-05-03 16:35:00,80.7,72.0,29.68,ENE,63,3.0,8.0,75,0.00,,,0.04,Wunderground v.1.15,2013-05-03 20:35:00,
2013-05-03 16:37:00,80.5,71.8,29.68,ENE,72,3.0,8.0,75,0.00,,,0.04,Wunderground v.1.15,2013-05-03 20:37:00,
2013-05-03 16:41:00,79.9,72.0,29.68,ESE,107,4.0,8.0,77,0.00,,,0.04,Wunderground v.1.15,2013-05-03 20:41:00,
2013-05-03 16:43:00,79.5,71.7,29.68,SE,127,4.0,8.0,77,0.00,,,0.04,Wunderground v.1.15,2013-05-03 20:43:00,
2013-05-03 16:44:00,79.4,71.6,29.68,East,79,5.0,8.0,77,0.00,,,0.04,Wunderground v.1.15,2013-05-03 20:44:00,
2013-05-03 16:45:00,79.1,71.6,29.68,North,359,5.0,8.0,78,0.00,,,0.04,Wunderground v.1.15,2013-05-03 20:45:00,
2013-05-03 16:46:00,78.9,71.1,29.68,ENE,63,5.0,8.0,77,0.00,,,0.04,Wunderground v.1.15,2013-05-03 20:46:00,
2013-05-03 16:49:00,78.6,71.2,29.68,NE,56,5.0,8.0,78,0.00,,,0.04,Wunderground v.1.15,2013-05-03 20:49:00,
2013-05-03 16:53:00,78.5,71.1,29.67,ESE,117,5.0,8.0,78,0.00,,,0.04,Wunderground v.1.15,2013-05-03 20:53:00,
2013-05-03 16:54:00,78.4,71.3,29.67,East,83,5.0,8.0,79,0.00,,,0.04,Wunderground v.1.15,2013-05-03 20:54:00,
2013-05-03 16:57:00,78.3,71.2,29.67,ENE,68,5.0,8.0,79,0.00,,,0.04,Wunderground v.1.15,2013-05-03 20:57:00,
2013-05-03 16:58:00,78.2,71.2,29.67,ENE,70,5.0,8.0,79,0.00,,,0.04,Wunderground v.1.15,2013-05-03 20:58:00,
2013-05-03 16:59:00,78.2,71.2,29.68,ESE,108,5.0,8.0,79,0.00,,,0.04,Wunderground v.1.15,2013-05-03 20:59:00,
2013-05-03 17:00:00,78.1,71.1,29.68,SSE,168,5.0,5.0,79,0.00,,,0.04,Wunderground v.1.15,2013-05-03 21:00:00,
2013-05-03 17:01:00,78.0,71.0,29.68,ESE,113,5.0,5.0,79,0.00,,,0.04,Wunderground v.1.15,2013-05-03 21:01:00,
2013-05-03 17:03:00,78.0,71.3,29.68,ENE,73,4.0,5.0,80,0.00,,,0.04,Wunderground v.1.15,2013-05-03 21:03:00,
2013-05-03 17:04:00,78.0,71.0,29.68,ENE,58,4.0,5.0,79,0.00,,,0.04,Wunderground v.1.15,2013-05-03 21:04:00,
2013-05-03 17:08:00,77.8,71.1,29.67,ENE,65,3.0,5.0,80,0.00,,,0.04,Wunderground v.1.15,2013-05-03 21:08:00,
2013-05-03 17:09:00,77.8,70.8,29.68,East,82,3.0,5.0,79,0.00,,,0.04,Wunderground v.1.15,2013-05-03 21:09:00,
2013-05-03 17:10:00,77.8,70.8,29.68,East,80,3.0,3.0,79,0.00,,,0.04,Wunderground v.1.15,2013-05-03 21:10:00,
2013-05-03 17:12:00,77.8,70.0,29.68,East,80,3.0,5.0,77,0.00,,,0.04,Wunderground v.1.15,2013-05-03 21:12:00,
2013-05-03 17:14:00,77.8,70.0,29.68,ESE,120,3.0,7.0,77,0.00,,,0.05,Wunderground v.1.15,2013-05-03 21:14:00,
2013-05-03 17:17:00,77.7,71.0,29.68,SE,137,3.0,7.0,80,0.12,,,0.06,Wunderground v.1.15,2013-05-03 21:17:00,
2013-05-03 17:18:00,77.5,71.2,29.68,SE,127,3.0,7.0,81,0.60,,,0.07,Wunderground v.1.15,2013-05-03 21:18:00,
2013-05-03 17:19:00,77.2,71.3,29.68,SSE,165,4.0,7.0,82,0.60,,,0.07,Wunderground v.1.15,2013-05-03 21:19:00,
2013-05-03 17:20:00,76.8,70.9,29.68,SE,135,5.0,5.0,82,0.49,,,0.08,Wunderground v.1.15,2013-05-03 21:20:00,
2013-05-03 17:24:00,75.5,70.7,29.69,ESE,122,6.0,10.0,85,0.18,,,0.09,Wunderground v.1.15,2013-05-03 21:24:00,
2013-05-03 17:25:00,75.2,70.7,29.69,SE,131,6.0,10.0,86,0.14,,,0.09,Wunderground v.1.15,2013-05-03 21:25:00,
2013-05-03 17:26:00,74.9,70.4,29.69,ESE,108,6.0,10.0,86,0.11,,,0.09,Wunderground v.1.15,2013-05-03 21:26:00,
2013-05-03 17:27:00,74.5,70.0,29.69,SE,146,7.0,10.0,86,0.10,,,0.10,Wunderground v.1.15,2013-05-03 21:27:00,
2013-05-03 17:31:00,73.6,69.8,29.69,SE,124,6.0,8.0,88,0.10,,,0.10,Wunderground v.1.15,2013-05-03 21:31:00,
2013-05-03 17:33:00,73.3,69.5,29.70,SE,131,6.0,10.0,88,0.09,,,0.10,Wunderground v.1.15,2013-05-03 21:33:00,
2013-05-03 17:34:00,73.2,69.8,29.70,South,181,6.0,10.0,89,0.08,,,0.10,Wunderground v.1.15,2013-05-03 21:34:00,
2013-05-03 17:35:00,73.1,69.7,29.70,SSE,155,5.0,10.0,89,0.07,,,0.10,Wunderground v.1.15,2013-05-03 21:35:00,
2013-05-03 17:37:00,72.9,68.8,29.70,SE,142,5.0,10.0,87,0.06,,,0.10,Wunderground v.1.15,2013-05-03 21:37:00,
2013-05-03 17:41:00,72.4,67.6,29.70,SSE,151,5.0,10.0,85,0.05,,,0.11,Wunderground v.1.15,2013-05-03 21:41:00,
2013-05-03 17:43:00,72.1,67.7,29.70,SSE,160,4.0,10.0,86,0.05,,,0.11,Wunderground v.1.15,2013-05-03 21:43:00,
2013-05-03 17:44:00,72.1,68.0,29.70,SSE,161,4.0,10.0,87,0.05,,,0.11,Wunderground v.1.15,2013-05-03 21:44:00,
2013-05-03 17:45:00,72.0,68.2,29.70,SE,135,4.0,10.0,88,0.05,,,0.11,Wunderground v.1.15,2013-05-03 21:45:00,
2013-05-03 17:46:00,72.0,67.9,29.70,South,169,4.0,10.0,87,0.05,,,0.11,Wunderground v.1.15,2013-05-03 21:46:00,
2013-05-03 17:50:00,72.2,67.1,29.71,SE,143,4.0,10.0,84,0.06,,,0.12,Wunderground v.1.15,2013-05-03 21:50:00,
2013-05-03 17:52:00,72.3,67.5,29.71,SE,134,4.0,10.0,85,0.06,,,0.12,Wunderground v.1.15,2013-05-03 21:52:00,
2013-05-03 17:53:00,72.2,67.1,29.71,SE,140,3.0,10.0,84,0.06,,,0.12,Wunderground v.1.15,2013-05-03 21:53:00,
2013-05-03 17:54:00,72.2,67.4,29.71,South,174,3.0,10.0,85,0.06,,,0.12,Wunderground v.1.15,2013-05-03 21:54:00,
2013-05-03 17:55:00,72.2,67.8,29.70,ESE,117,3.0,10.0,86,0.06,,,0.12,Wunderground v.1.15,2013-05-03 21:55:00,
2013-05-03 17:56:00,72.2,67.8,29.70,ESE,119,3.0,10.0,86,0.06,,,0.12,Wunderground v.1.15,2013-05-03 21:56:00,
2013-05-03 17:58:00,72.1,67.3,29.70,SE,134,3.0,10.0,85,0.06,,,0.12,Wunderground v.1.15,2013-05-03 21:58:00,
2013-05-03 17:59:00,72.0,67.2,29.70,ESE,115,3.0,10.0,85,0.06,,,0.12,Wunderground v.1.15,2013-05-03 21:59:00,
2013-05-03 18:02:00,71.8,67.4,29.70,SE,142,3.0,3.0,86,0.05,,,0.12,Wunderground v.1.15,2013-05-03 22:02:00,
2013-05-03 18:04:00,71.8,67.0,29.70,East,99,3.0,3.0,85,0.04,,,0.12,Wunderground v.1.15,2013-05-03 22:04:00,
2013-05-03 18:05:00,71.9,66.5,29.70,SE,124,3.0,6.0,83,0.04,,,0.12,Wunderground v.1.15,2013-05-03 22:05:00,
2013-05-03 18:08:00,72.1,66.3,29.70,East,86,3.0,6.0,82,0.00,,,0.12,Wunderground v.1.15,2013-05-03 22:08:00,
2013-05-03 18:09:00,72.2,66.4,29.70,ESE,110,3.0,6.0,82,0.00,,,0.12,Wunderground v.1.15,2013-05-03 22:09:00,
2013-05-03 18:11:00,72.3,66.5,29.70,SE,132,3.0,3.0,82,0.00,,,0.12,Wunderground v.1.15,2013-05-03 22:11:00,
2013-05-03 18:12:00,72.4,66.2,29.70,ENE,68,3.0,6.0,81,0.00,,,0.12,Wunderground v.1.15,2013-05-03 22:12:00,
2013-05-03 18:13:00,72.4,65.9,29.70,East,79,3.0,6.0,80,0.00,,,0.12,Wunderground v.1.15,2013-05-03 22:13:00,
2013-05-03 18:15:00,72.6,66.1,29.70,East,87,3.0,6.0,80,0.00,,,0.12,Wunderground v.1.15,2013-05-03 22:15:00,
2013-05-03 18:17:00,72.7,66.5,29.69,SSE,148,3.0,6.0,81,0.00,,,0.12,Wunderground v.1.15,2013-05-03 22:17:00,
2013-05-03 18:18:00,72.7,66.9,29.69,SE,126,3.0,6.0,82,0.00,,,0.12,Wunderground v.1.15,2013-05-03 22:18:00,
2013-05-03 18:23:00,73.2,67.7,29.69,ENE,75,2.0,4.0,83,0.00,,,0.12,Wunderground v.1.15,2013-05-03 22:23:00,
2013-05-03 18:26:00,73.2,67.4,29.69,ENE,64,2.0,4.0,82,0.00,,,0.12,Wunderground v.1.15,2013-05-03 22:26:00,
2013-05-03 18:30:00,73.4,68.3,29.69,ENE,64,1.0,1.0,84,0.00,,,0.12,Wunderground v.1.15,2013-05-03 22:30:00,
2013-05-03 18:32:00,73.5,68.4,29.69,ENE,76,1.0,14.0,84,0.00,,,0.12,Wunderground v.1.15,2013-05-03 22:32:00,
2013-05-03 18:33:00,73.7,68.6,29.69,ENE,76,1.0,14.0,84,0.00,,,0.12,Wunderground v.1.15,2013-05-03 22:33:00,
2013-05-03 18:36:00,74.1,69.3,29.69,NW,325,1.0,14.0,85,0.00,,,0.12,Wunderground v.1.15,2013-05-03 22:36:00,
2013-05-03 18:37:00,74.2,69.4,29.69,NW,325,1.0,14.0,85,0.00,,,0.12,Wunderground v.1.15,2013-05-03 22:37:00,
2013-05-03 18:39:00,74.5,69.0,29.69,NW,325,0.0,14.0,83,0.00,,,0.12,Wunderground v.1.15,2013-05-03 22:39:00,
2013-05-03 18:42:00,75.1,69.9,29.69,NW,325,0.0,14.0,84,0.00,,,0.12,Wunderground v.1.15,2013-05-03 22:42:00,
2013-05-03 18:44:00,75.6,70.4,29.68,WSW,238,0.0,14.0,84,0.00,,,0.12,Wunderground v.1.15,2013-05-03 22:44:00,
2013-05-03 18:45:00,75.8,70.6,29.68,WSW,238,0.0,14.0,84,0.00,,,0.12,Wunderground v.1.15,2013-05-03 22:45:00,
2013-05-03 18:47:00,76.3,70.8,29.68,SE,132,0.0,14.0,83,0.00,,,0.12,Wunderground v.1.15,2013-05-03 22:47:00,
2013-05-03 18:49:00,76.6,70.7,29.68,SSE,158,0.0,14.0,82,0.00,,,0.12,Wunderground v.1.15,2013-05-03 22:49:00,
2013-05-03 18:50:00,76.5,70.6,29.68,SSE,152,0.0,14.0,82,0.00,,,0.12,Wunderground v.1.15,2013-05-03 22:50:00,
2013-05-03 18:51:00,76.5,70.6,29.68,SE,143,1.0,14.0,82,0.00,,,0.12,Wunderground v.1.15,2013-05-03 22:51:00,
2013-05-03 18:54:00,76.3,70.4,29.68,ESE,122,1.0,14.0,82,0.00,,,0.12,Wunderground v.1.15,2013-05-03 22:54:00,
2013-05-03 18:55:00,76.3,70.8,29.68,SE,124,1.0,14.0,83,0.00,,,0.12,Wunderground v.1.15,2013-05-03 22:55:00,
2013-05-03 18:56:00,76.2,70.7,29.68,SE,125,1.0,14.0,83,0.00,,,0.12,Wunderground v.1.15,2013-05-03 22:56:00,
2013-05-03 18:59:00,76.1,70.6,29.68,South,185,1.0,14.0,83,0.00,,,0.12,Wunderground v.1.15,2013-05-03 22:59:00,
2013-05-03 19:00:00,76.0,70.1,29.68,SSE,167,1.0,1.0,82,0.00,,,0.12,Wunderground v.1.15,2013-05-03 23:00:00,
2013-05-03 19:03:00,75.9,70.0,29.68,South,173,1.0,1.0,82,0.00,,,0.12,Wunderground v.1.15,2013-05-03 23:03:00,
2013-05-03 19:05:00,75.7,69.5,29.68,SE,132,1.0,1.0,81,0.00,,,0.12,Wunderground v.1.15,2013-05-03 23:05:00,
2013-05-03 19:06:00,75.7,69.8,29.68,SSE,148,1.0,1.0,82,0.00,,,0.12,Wunderground v.1.15,2013-05-03 23:06:00,
2013-05-03 19:07:00,75.7,69.8,29.68,SW,226,1.0,1.0,82,0.00,,,0.12,Wunderground v.1.15,2013-05-03 23:07:00,
2013-05-03 19:12:00,75.5,70.0,29.68,SSE,159,1.0,2.0,83,0.00,,,0.12,Wunderground v.1.15,2013-05-03 23:12:00,
2013-05-03 19:13:00,75.4,69.9,29.68,SSE,160,1.0,2.0,83,0.00,,,0.12,Wunderground v.1.15,2013-05-03 23:13:00,
2013-05-03 19:14:00,75.4,69.9,29.68,SSE,160,1.0,2.0,83,0.00,,,0.12,Wunderground v.1.15,2013-05-03 23:14:00,
2013-05-03 19:16:00,75.3,70.1,29.68,SSE,160,0.0,2.0,84,0.00,,,0.12,Wunderground v.1.15,2013-05-03 23:16:00,
2013-05-03 19:20:00,75.1,69.9,29.68,SSE,160,0.0,0.0,84,0.00,,,0.12,Wunderground v.1.15,2013-05-03 23:20:00,
2013-05-03 19:22:00,75.0,69.8,29.68,SSE,160,0.0,0.0,84,0.00,,,0.12,Wunderground v.1.15,2013-05-03 23:22:00,
2013-05-03 19:23:00,75.0,69.8,29.68,SSE,160,0.0,0.0,84,0.00,,,0.12,Wunderground v.1.15,2013-05-03 23:23:00,
2013-05-03 19:25:00,74.9,69.7,29.68,SSE,160,0.0,0.0,84,0.00,,,0.12,Wunderground v.1.15,2013-05-03 23:25:00,
2013-05-03 19:26:00,74.9,69.7,29.68,South,173,0.0,0.0,84,0.00,,,0.12,Wunderground v.1.15,2013-05-03 23:26:00,
2013-05-03 19:29:00,74.9,69.7,29.69,SSW,195,0.0,0.0,84,0.00,,,0.12,Wunderground v.1.15,2013-05-03 23:29:00,
2013-05-03 19:31:00,74.8,69.6,29.68,SSE,153,0.0,1.0,84,0.00,,,0.12,Wunderground v.1.15,2013-05-03 23:31:00,
2013-05-03 19:32:00,74.9,69.7,29.68,SSE,155,0.0,8.0,84,0.00,,,0.12,Wunderground v.1.15,2013-05-03 23:32:00,
2013-05-03 19:35:00,74.8,70.0,29.68,South,178,0.0,8.0,85,0.00,,,0.12,Wunderground v.1.15,2013-05-03 23:35:00,
2013-05-03 19:36:00,74.8,69.6,29.68,SSW,210,0.0,8.0,84,0.00,,,0.12,Wunderground v.1.15,2013-05-03 23:36:00,
2013-05-03 19:40:00,74.8,70.0,29.69,SSE,165,0.0,8.0,85,0.00,,,0.12,Wunderground v.1.15,2013-05-03 23:40:00,
2013-05-03 19:41:00,74.8,70.0,29.69,East,94,0.0,8.0,85,0.00,,,0.12,Wunderground v.1.15,2013-05-03 23:41:00,
2013-05-03 19:42:00,74.8,70.0,29.69,SSE,158,0.0,8.0,85,0.00,,,0.12,Wunderground v.1.15,2013-05-03 23:42:00,
2013-05-03 19:44:00,74.8,70.0,29.69,SE,141,0.0,8.0,85,0.00,,,0.12,Wunderground v.1.15,2013-05-03 23:44:00,
2013-05-03 19:45:00,74.8,70.0,29.69,SE,141,0.0,8.0,85,0.00,,,0.12,Wunderground v.1.15,2013-05-03 23:45:00,
2013-05-03 19:50:00,74.7,69.9,29.69,SE,129,0.0,8.0,85,0.00,,,0.12,Wunderground v.1.15,2013-05-03 23:50:00,
2013-05-03 19:51:00,74.7,69.9,29.69,SE,129,0.0,8.0,85,0.00,,,0.12,Wunderground v.1.15,2013-05-03 23:51:00,
2013-05-03 19:52:00,74.7,69.9,29.69,SE,129,0.0,8.0,85,0.00,,,0.12,Wunderground v.1.15,2013-05-03 23:52:00,
2013-05-03 19:54:00,74.7,69.9,29.70,SE,129,0.0,8.0,85,0.00,,,0.12,Wunderground v.1.15,2013-05-03 23:54:00,
2013-05-03 19:57:00,74.6,70.1,29.70,SE,129,0.0,8.0,86,0.00,,,0.12,Wunderground v.1.15,2013-05-03 23:57:00,
2013-05-03 19:58:00,74.6,70.1,29.70,SE,129,0.0,8.0,86,0.00,,,0.12,Wunderground v.1.15,2013-05-03 23:58:00,
2013-05-03 20:00:00,74.5,70.0,29.70,SE,129,0.0,0.0,86,0.00,,,0.12,Wunderground v.1.15,2013-05-04 00:00:00,
2013-05-03 20:04:00,74.4,69.9,29.70,SE,129,0.0,0.0,86,0.00,,,0.12,Wunderground v.1.15,2013-05-04 00:04:00,
2013-05-03 20:05:00,74.4,69.9,29.70,SE,129,0.0,0.0,86,0.00,,,0.12,Wunderground v.1.15,2013-05-04 00:05:00,
2013-05-03 20:07:00,74.4,70.3,29.70,SE,129,0.0,0.0,87,0.00,,,0.12,Wunderground v.1.15,2013-05-04 00:07:00,
2013-05-03 20:09:00,74.3,70.2,29.71,SE,129,0.0,0.0,87,0.00,,,0.12,Wunderground v.1.15,2013-05-04 00:09:00,
2013-05-03 20:12:00,74.3,70.2,29.71,SE,129,0.0,0.0,87,0.00,,,0.12,Wunderground v.1.15,2013-05-04 00:12:00,
2013-05-03 20:15:00,74.2,70.4,29.71,SE,134,0.0,0.0,88,0.00,,,0.12,Wunderground v.1.15,2013-05-04 00:15:00,
2013-05-03 20:16:00,74.2,70.1,29.71,SE,134,0.0,0.0,87,0.00,,,0.12,Wunderground v.1.15,2013-05-04 00:16:00,
2013-05-03 20:18:00,74.3,70.2,29.71,SE,134,0.0,0.0,87,0.00,,,0.12,Wunderground v.1.15,2013-05-04 00:18:00,
2013-05-03 20:19:00,74.3,70.2,29.71,SE,134,0.0,0.0,87,0.00,,,0.12,Wunderground v.1.15,2013-05-04 00:19:00,
2013-05-03 20:20:00,74.4,70.3,29.72,SE,134,0.0,0.0,87,0.00,,,0.12,Wunderground v.1.15,2013-05-04 00:20:00,
2013-05-03 20:22:00,74.5,70.4,29.72,SW,231,0.0,0.0,87,0.00,,,0.12,Wunderground v.1.15,2013-05-04 00:22:00,
2013-05-03 20:25:00,74.6,70.8,29.72,NW,314,0.0,2.0,88,0.00,,,0.12,Wunderground v.1.15,2013-05-04 00:25:00,
2013-05-03 20:28:00,75.0,71.2,29.73,NW,315,1.0,4.0,88,0.00,,,0.12,Wunderground v.1.15,2013-05-04 00:28:00,
2013-05-03 20:29:00,75.1,71.3,29.73,NW,314,2.0,5.0,88,0.00,,,0.12,Wunderground v.1.15,2013-05-04 00:29:00,
2013-05-03 20:31:00,75.2,71.1,29.73,NW,315,2.0,4.0,87,0.00,,,0.12,Wunderground v.1.15,2013-05-04 00:31:00,
2013-05-03 20:32:00,75.2,71.4,29.73,NW,307,3.0,4.0,88,0.00,,,0.12,Wunderground v.1.15,2013-05-04 00:32:00,
2013-05-03 20:37:00,74.9,70.8,29.73,NW,325,5.0,6.0,87,0.00,,,0.12,Wunderground v.1.15,2013-05-04 00:37:00,
2013-05-03 20:38:00,74.8,70.7,29.73,NW,313,5.0,6.0,87,0.00,,,0.12,Wunderground v.1.15,2013-05-04 00:38:00,
2013-05-03 20:41:00,74.4,70.3,29.73,NW,314,5.0,7.0,87,0.00,,,0.12,Wunderground v.1.15,2013-05-04 00:41:00,
2013-05-03 20:43:00,74.2,70.4,29.73,NNW,333,5.0,7.0,88,0.00,,,0.12,Wunderground v.1.15,2013-05-04 00:43:00,
2013-05-03 20:47:00,73.8,70.4,29.73,NW,319,5.0,7.0,89,0.00,,,0.12,Wunderground v.1.15,2013-05-04 00:47:00,
2013-05-03 20:50:00,73.6,70.2,29.74,WNW,285,5.0,5.0,89,0.00,,,0.12,Wunderground v.1.15,2013-05-04 00:50:00,
2013-05-03 20:51:00,73.6,70.2,29.74,WNW,299,5.0,5.0,89,0.00,,,0.12,Wunderground v.1.15,2013-05-04 00:51:00,
2013-05-03 20:52:00,73.5,70.1,29.74,WNW,293,5.0,5.0,89,0.00,,,0.12,Wunderground v.1.15,2013-05-04 00:52:00,
2013-05-03 20:56:00,73.1,69.7,29.74,NNW,331,6.0,8.0,89,0.00,,,0.12,Wunderground v.1.15,2013-05-04 00:56:00,
2013-05-03 20:57:00,73.0,69.6,29.74,NW,315,6.0,8.0,89,0.00,,,0.12,Wunderground v.1.15,2013-05-04 00:57:00,
2013-05-03 20:58:00,72.9,69.5,29.74,NW,306,6.0,8.0,89,0.00,,,0.12,Wunderground v.1.15,2013-05-04 00:58:00,
2013-05-03 20:59:00,72.8,69.4,29.74,NW,309,6.0,8.0,89,0.00,,,0.12,Wunderground v.1.15,2013-05-04 00:59:00,
2013-05-03 21:02:00,72.4,69.6,29.74,NW,311,6.0,6.0,91,0.00,,,0.13,Wunderground v.1.15,2013-05-04 01:02:00,
2013-05-03 21:03:00,72.4,69.6,29.74,WNW,293,6.0,6.0,91,0.00,,,0.13,Wunderground v.1.15,2013-05-04 01:03:00,
2013-05-03 21:05:00,72.2,69.4,29.74,NW,309,6.0,7.0,91,0.45,,,0.14,Wunderground v.1.15,2013-05-04 01:05:00,
2013-05-03 21:08:00,72.1,69.6,29.74,NW,310,5.0,7.0,92,0.46,,,0.17,Wunderground v.1.15,2013-05-04 01:08:00,
2013-05-03 21:10:00,72.0,69.2,29.74,NW,314,5.0,5.0,91,0.30,,,0.18,Wunderground v.1.15,2013-05-04 01:10:00,
2013-05-03 21:13:00,71.8,69.3,29.74,NW,311,5.0,5.0,92,0.29,,,0.19,Wunderground v.1.15,2013-05-04 01:13:00,
2013-05-03 21:14:00,71.7,69.3,29.74,NNW,327,5.0,5.0,92,0.27,,,0.19,Wunderground v.1.15,2013-05-04 01:14:00,
2013-05-03 21:16:00,71.5,69.4,29.74,NW,307,4.0,6.0,93,0.20,,,0.20,Wunderground v.1.15,2013-05-04 01:16:00,
2013-05-03 21:19:00,71.4,69.3,29.74,WNW,298,4.0,6.0,93,0.22,,,0.21,Wunderground v.1.15,2013-05-04 01:19:00,
2013-05-03 21:23:00,71.3,69.2,29.74,NW,322,4.0,5.0,93,0.38,,,0.23,Wunderground v.1.15,2013-05-04 01:23:00,
2013-05-03 21:24:00,71.2,69.1,29.74,WNW,302,3.0,5.0,93,0.34,,,0.24,Wunderground v.1.15,2013-05-04 01:24:00,
2013-05-03 21:26:00,71.2,69.1,29.74,WNW,286,3.0,5.0,93,0.26,,,0.24,Wunderground v.1.15,2013-05-04 01:26:00,
2013-05-03 21:29:00,71.1,69.0,29.74,WSW,256,2.0,5.0,93,0.19,,,0.25,Wunderground v.1.15,2013-05-04 01:29:00,
2013-05-03 21:30:00,71.1,69.0,29.74,WSW,246,2.0,2.0,93,0.19,,,0.25,Wunderground v.1.15,2013-05-04 01:30:00,
2013-05-03 21:31:00,71.1,69.0,29.74,SW,233,1.0,9.0,93,0.14,,,0.25,Wunderground v.1.15,2013-05-04 01:31:00,
2013-05-03 21:34:00,71.0,69.2,29.74,WSW,250,0.0,9.0,94,0.08,,,0.25,Wunderground v.1.15,2013-05-04 01:34:00,
2013-05-03 21:36:00,70.9,69.1,29.74,SW,227,0.0,9.0,94,0.06,,,0.25,Wunderground v.1.15,2013-05-04 01:36:00,
2013-05-03 21:38:00,70.9,69.1,29.74,South,171,0.0,9.0,94,0.05,,,0.25,Wunderground v.1.15,2013-05-04 01:38:00,
2013-05-03 21:39:00,70.9,69.1,29.74,West,259,0.0,9.0,94,0.05,,,0.25,Wunderground v.1.15,2013-05-04 01:39:00,
2013-05-03 21:41:00,70.9,69.1,29.74,SW,224,0.0,9.0,94,0.04,,,0.25,Wunderground v.1.15,2013-05-04 01:41:00,
2013-05-03 21:43:00,70.9,69.1,29.74,SW,235,0.0,9.0,94,0.04,,,0.25,Wunderground v.1.15,2013-05-04 01:43:00,
2013-05-03 21:48:00,70.9,69.1,29.74,SW,216,0.0,9.0,94,0.00,,,0.25,Wunderground v.1.15,2013-05-04 01:48:00,
2013-05-03 21:49:00,70.9,69.1,29.74,SW,216,0.0,9.0,94,0.00,,,0.25,Wunderground v.1.15,2013-05-04 01:49:00,
2013-05-03 21:51:00,70.9,69.1,29.74,SW,216,0.0,9.0,94,0.00,,,0.25,Wunderground v.1.15,2013-05-04 01:51:00,
2013-05-03 21:53:00,70.9,69.1,29.74,SW,216,0.0,9.0,94,0.00,,,0.25,Wunderground v.1.15,2013-05-04 01:53:00,
2013-05-03 21:55:00,70.9,69.1,29.74,SW,216,0.0,9.0,94,0.00,,,0.25,Wunderground v.1.15,2013-05-04 01:55:00,
2013-05-03 21:57:00,70.9,69.1,29.73,SW,216,0.0,9.0,94,0.00,,,0.25,Wunderground v.1.15,2013-05-04 01:57:00,
2013-05-03 21:58:00,70.8,69.0,29.74,SW,216,0.0,9.0,94,0.00,,,0.25,Wunderground v.1.15,2013-05-04 01:58:00,
2013-05-03 22:00:00,70.8,69.0,29.74,SW,216,0.0,0.0,94,0.00,,,0.25,Wunderground v.1.15,2013-05-04 02:00:00,
2013-05-03 22:01:00,70.8,69.0,29.73,SW,216,0.0,0.0,94,0.00,,,0.25,Wunderground v.1.15,2013-05-04 02:01:00,
2013-05-03 22:03:00,70.8,69.0,29.73,SW,216,0.0,0.0,94,0.00,,,0.25,Wunderground v.1.15,2013-05-04 02:03:00,
2013-05-03 22:04:00,70.8,69.3,29.73,SW,216,0.0,0.0,95,0.00,,,0.25,Wunderground v.1.15,2013-05-04 02:04:00,
2013-05-03 22:09:00,70.9,69.4,29.74,SSW,204,0.0,0.0,95,0.00,,,0.25,Wunderground v.1.15,2013-05-04 02:09:00,
2013-05-03 22:10:00,70.9,69.4,29.74,SSW,204,0.0,0.0,95,0.00,,,0.25,Wunderground v.1.15,2013-05-04 02:10:00,
2013-05-03 22:11:00,70.9,69.4,29.74,SSW,203,0.0,0.0,95,0.00,,,0.25,Wunderground v.1.15,2013-05-04 02:11:00,
2013-05-03 22:12:00,70.9,69.4,29.74,SSW,203,0.0,0.0,95,0.00,,,0.25,Wunderground v.1.15,2013-05-04 02:12:00,
2013-05-03 22:16:00,70.9,69.1,29.74,SSW,203,0.0,0.0,94,0.00,,,0.25,Wunderground v.1.15,2013-05-04 02:16:00,
2013-05-03 22:17:00,70.8,69.0,29.74,SSW,203,0.0,0.0,94,0.00,,,0.25,Wunderground v.1.15,2013-05-04 02:17:00,
2013-05-03 22:18:00,70.8,69.0,29.74,SSW,203,0.0,0.0,94,0.00,,,0.25,Wunderground v.1.15,2013-05-04 02:18:00,
2013-05-03 22:19:00,70.7,68.9,29.74,SSW,203,0.0,0.0,94,0.00,,,0.25,Wunderground v.1.15,2013-05-04 02:19:00,
2013-05-03 22:23:00,70.6,68.8,29.74,SSW,203,0.0,0.0,94,0.00,,,0.25,Wunderground v.1.15,2013-05-04 02:23:00,
2013-05-03 22:24:00,70.6,68.8,29.74,SSW,203,0.0,0.0,94,0.00,,,0.25,Wunderground v.1.15,2013-05-04 02:24:00,
2013-05-03 22:27:00,70.5,68.7,29.74,SSW,203,0.0,0.0,94,0.00,,,0.25,Wunderground v.1.15,2013-05-04 02:27:00,
2013-05-03 22:28:00,70.5,68.7,29.74,SSW,203,0.0,0.0,94,0.00,,,0.25,Wunderground v.1.15,2013-05-04 02:28:00,
2013-05-03 22:31:00,70.5,68.7,29.74,SSW,203,0.0,7.0,94,0.00,,,0.25,Wunderground v.1.15,2013-05-04 02:31:00,
2013-05-03 22:32:00,70.5,68.7,29.74,SSW,203,0.0,7.0,94,0.00,,,0.25,Wunderground v.1.15,2013-05-04 02:32:00,
2013-05-03 22:33:00,70.5,68.7,29.74,SSW,203,0.0,7.0,94,0.00,,,0.25,Wunderground v.1.15,2013-05-04 02:33:00,
2013-05-03 22:37:00,70.5,68.7,29.74,SE,139,0.0,7.0,94,0.00,,,0.25,Wunderground v.1.15,2013-05-04 02:37:00,
2013-05-03 22:38:00,70.6,68.8,29.74,SE,139,0.0,7.0,94,0.00,,,0.25,Wunderground v.1.15,2013-05-04 02:38:00,
2013-05-03 22:39:00,70.6,69.1,29.73,SE,139,0.0,7.0,95,0.00,,,0.25,Wunderground v.1.15,2013-05-04 02:39:00,
2013-05-03 22:40:00,70.6,69.1,29.73,SE,139,0.0,7.0,95,0.00,,,0.25,Wunderground v.1.15,2013-05-04 02:40:00,
2013-05-03 22:43:00,70.6,68.8,29.73,SE,135,0.0,7.0,94,0.00,,,0.25,Wunderground v.1.15,2013-05-04 02:43:00,
2013-05-03 22:46:00,70.5,68.7,29.73,SE,135,0.0,7.0,94,0.00,,,0.25,Wunderground v.1.15,2013-05-04 02:46:00,
2013-05-03 22:47:00,70.5,68.7,29.73,SE,135,0.0,7.0,94,0.00,,,0.25,Wunderground v.1.15,2013-05-04 02:47:00,
2013-05-03 22:49:00,70.4,68.6,29.73,SE,135,0.0,7.0,94,0.00,,,0.25,Wunderground v.1.15,2013-05-04 02:49:00,
2013-05-03 22:51:00,70.4,68.6,29.73,SE,135,0.0,7.0,94,0.00,,,0.25,Wunderground v.1.15,2013-05-04 02:51:00,
2013-05-03 22:52:00,70.4,68.6,29.73,SE,135,0.0,7.0,94,0.00,,,0.25,Wunderground v.1.15,2013-05-04 02:52:00,
2013-05-03 22:54:00,70.3,68.5,29.73,SE,135,0.0,7.0,94,0.00,,,0.25,Wunderground v.1.15,2013-05-04 02:54:00,
2013-05-03 22:57:00,70.3,68.5,29.73,SE,135,0.0,7.0,94,0.00,,,0.25,Wunderground v.1.15,2013-05-04 02:57:00,
2013-05-03 22:58:00,70.2,68.7,29.73,SE,135,0.0,7.0,95,0.00,,,0.25,Wunderground v.1.15,2013-05-04 02:58:00,
2013-05-03 22:59:00,70.2,68.7,29.73,SE,135,0.0,7.0,95,0.00,,,0.25,Wunderground v.1.15,2013-05-04 02:59:00,
2013-05-03 23:00:00,70.2,68.7,29.73,SE,135,0.0,0.0,95,0.00,,,0.25,Wunderground v.1.15,2013-05-04 03:00:00,
2013-05-03 23:01:00,70.2,68.7,29.73,SE,135,0.0,0.0,95,0.00,,,0.25,Wunderground v.1.15,2013-05-04 03:01:00,
2013-05-03 23:04:00,70.3,68.8,29.73,SE,135,0.0,0.0,95,0.00,,,0.25,Wunderground v.1.15,2013-05-04 03:04:00,
2013-05-03 23:05:00,70.3,68.8,29.73,SE,135,0.0,0.0,95,0.00,,,0.25,Wunderground v.1.15,2013-05-04 03:05:00,
2013-05-03 23:06:00,70.3,68.8,29.73,SE,135,0.0,0.0,95,0.00,,,0.25,Wunderground v.1.15,2013-05-04 03:06:00,
2013-05-03 23:07:00,70.3,68.8,29.73,SE,135,0.0,0.0,95,0.00,,,0.25,Wunderground v.1.15,2013-05-04 03:07:00,
2013-05-03 23:09:00,70.3,68.8,29.73,SSW,200,0.0,0.0,95,0.00,,,0.25,Wunderground v.1.15,2013-05-04 03:09:00,
2013-05-03 23:10:00,70.3,68.8,29.73,SSW,200,0.0,0.0,95,0.00,,,0.25,Wunderground v.1.15,2013-05-04 03:10:00,
2013-05-03 23:12:00,70.3,68.8,29.73,SSW,200,0.0,0.0,95,0.00,,,0.25,Wunderground v.1.15,2013-05-04 03:12:00,
2013-05-03 23:16:00,70.3,69.1,29.73,SSW,200,0.0,0.0,96,0.00,,,0.25,Wunderground v.1.15,2013-05-04 03:16:00,
2013-05-03 23:17:00,70.3,69.1,29.73,SSW,200,0.0,0.0,96,0.00,,,0.25,Wunderground v.1.15,2013-05-04 03:17:00,
2013-05-03 23:18:00,70.3,69.1,29.73,SSW,200,0.0,0.0,96,0.00,,,0.25,Wunderground v.1.15,2013-05-04 03:18:00,
2013-05-03 23:19:00,70.3,68.8,29.73,SSW,200,0.0,0.0,95,0.00,,,0.25,Wunderground v.1.15,2013-05-04 03:19:00,
2013-05-03 23:23:00,70.3,68.8,29.73,SSW,200,0.0,0.0,95,0.00,,,0.25,Wunderground v.1.15,2013-05-04 03:23:00,
2013-05-03 23:25:00,70.2,68.7,29.73,SSW,200,0.0,0.0,95,0.00,,,0.25,Wunderground v.1.15,2013-05-04 03:25:00,
2013-05-03 23:26:00,70.2,68.7,29.72,SSW,200,0.0,0.0,95,0.00,,,0.25,Wunderground v.1.15,2013-05-04 03:26:00,
2013-05-03 23:28:00,70.1,68.6,29.73,SSW,200,0.0,0.0,95,0.00,,,0.25,Wunderground v.1.15,2013-05-04 03:28:00,
2013-05-03 23:29:00,70.1,68.6,29.72,SSW,200,0.0,0.0,95,0.00,,,0.25,Wunderground v.1.15,2013-05-04 03:29:00,
2013-05-03 23:33:00,70.0,68.5,29.72,SSW,200,0.0,1.0,95,0.00,,,0.25,Wunderground v.1.15,2013-05-04 03:33:00,
2013-05-03 23:34:00,70.0,68.8,29.72,SSW,200,0.0,1.0,96,0.00,,,0.25,Wunderground v.1.15,2013-05-04 03:34:00,
2013-05-03 23:36:00,70.0,68.8,29.72,SSW,200,0.0,1.0,96,0.00,,,0.25,Wunderground v.1.15,2013-05-04 03:36:00,
2013-05-03 23:37:00,70.0,68.8,29.72,SSW,200,0.0,1.0,96,0.00,,,0.25,Wunderground v.1.15,2013-05-04 03:37:00,
2013-05-03 23:38:00,70.0,68.8,29.72,SSW,200,0.0,1.0,96,0.00,,,0.25,Wunderground v.1.15,2013-05-04 03:38:00,
2013-05-03 23:40:00,70.0,68.8,29.72,SSW,200,0.0,1.0,96,0.00,,,0.25,Wunderground v.1.15,2013-05-04 03:40:00,
2013-05-03 23:42:00,70.0,68.8,29.72,SSW,200,0.0,1.0,96,0.00,,,0.25,Wunderground v.1.15,2013-05-04 03:42:00,
2013-05-03 23:45:00,70.1,68.9,29.72,SSW,200,0.0,1.0,96,0.00,,,0.25,Wunderground v.1.15,2013-05-04 03:45:00,
2013-05-03 23:46:00,70.0,68.8,29.72,SSW,200,0.0,1.0,96,0.00,,,0.25,Wunderground v.1.15,2013-05-04 03:46:00,
2013-05-03 23:49:00,70.1,68.9,29.72,SSW,200,0.0,1.0,96,0.00,,,0.25,Wunderground v.1.15,2013-05-04 03:49:00,
2013-05-03 23:50:00,70.0,68.8,29.72,SSW,200,0.0,1.0,96,0.00,,,0.25,Wunderground v.1.15,2013-05-04 03:50:00,
2013-05-03 23:53:00,70.0,68.8,29.73,SSW,200,0.0,1.0,96,0.00,,,0.25,Wunderground v.1.15,2013-05-04 03:53:00,
2013-05-03 23:54:00,70.0,68.8,29.73,SSW,200,0.0,1.0,96,0.00,,,0.25,Wunderground v.1.15,2013-05-04 03:54:00,
2013-05-03 23:56:00,70.0,68.8,29.73,SSW,200,0.0,1.0,96,0.00,,,0.25,Wunderground v.1.15,2013-05-04 03:56:00,
2013-05-03 23:58:00,70.0,68.8,29.73,SSW,200,0.0,1.0,96,0.00,,,0.25,Wunderground v.1.15,2013-05-04 03:58:00,